Wetterdaten: Sonntag, 06.11.2022
Datum Zeit Temp. Aussen Temp. o. S. Temp +5cm Feuchte Auss Luftdruck Regen Sonnenschein Regendauer Solar Windben Empfang
06.11.2022 00:00 8,8 C 7,8 C 5,0 C 87 % 1017,1 hPa 0,0 l/m 0 min 0 min 0 W/m 3,2 km/h (1 Bft) 100,00 %
06.11.2022 00:02 8,8 C 7,8 C 5,0 C 87 % 1017,1 hPa 0,0 l/m 0 min 0 min 0 W/m 6,4 km/h (2 Bft) 97,62 %
06.11.2022 00:04 8,7 C 7,8 C 5,0 C 87 % 1017,1 hPa 0,0 l/m 0 min 0 min 0 W/m 6,4 km/h (2 Bft) 100,00 %
06.11.2022 00:08 8,7 C 7,8 C 5,0 C 87 % 1017,1 hPa 0,0 l/m 0 min 0 min 0 W/m 12,9 km/h (3 Bft) 100,00 %
06.11.2022 00:10 8,7 C 7,8 C 5,0 C 87 % 1017,1 hPa 0,0 l/m 0 min 0 min 0 W/m 6,4 km/h (2 Bft) 100,00 %
06.11.2022 00:12 8,7 C 7,8 C 5,0 C 87 % 1017,1 hPa 0,0 l/m 0 min 0 min 0 W/m 12,9 km/h (3 Bft) 100,00 %
06.11.2022 00:14 8,7 C 7,8 C 5,0 C 87 % 1017,1 hPa 0,0 l/m 0 min 0 min 0 W/m 6,4 km/h (2 Bft) 97,87 %
06.11.2022 00:16 8,7 C 7,8 C 5,0 C 87 % 1017,1 hPa 0,0 l/m 0 min 0 min 0 W/m 6,4 km/h (2 Bft) 100,00 %
06.11.2022 00:18 8,7 C 7,8 C 5,0 C 87 % 1017,1 hPa 0,0 l/m 0 min 0 min 0 W/m 12,9 km/h (3 Bft) 100,00 %
06.11.2022 00:20 8,6 C 7,8 C 4,4 C 87 % 1017,1 hPa 0,0 l/m 0 min 0 min 0 W/m 12,9 km/h (3 Bft) 100,00 %
06.11.2022 00:22 8,6 C 7,8 C 4,4 C 87 % 1017,0 hPa 0,0 l/m 0 min 0 min 0 W/m 6,4 km/h (2 Bft) 100,00 %
06.11.2022 00:24 8,6 C 7,8 C 4,4 C 87 % 1017,0 hPa 0,0 l/m 0 min 0 min 0 W/m 3,2 km/h (1 Bft) 100,00 %
06.11.2022 00:26 8,6 C 7,8 C 4,4 C 87 % 1017,0 hPa 0,0 l/m 0 min 0 min 0 W/m 6,4 km/h (2 Bft) 100,00 %
06.11.2022 00:28 8,6 C 7,8 C 4,4 C 87 % 1017,0 hPa 0,0 l/m 0 min 0 min 0 W/m 6,4 km/h (2 Bft) 100,00 %
06.11.2022 00:30 8,6 C 7,8 C 4,4 C 87 % 1017,0 hPa 0,0 l/m 0 min 0 min 0 W/m 12,9 km/h (3 Bft) 100,00 %
06.11.2022 00:33 8,5 C 7,2 C 4,4 C 87 % 1017,0 hPa 0,0 l/m 0 min 0 min 0 W/m 6,4 km/h (2 Bft) 100,00 %
06.11.2022 00:34 8,5 C 7,2 C 4,4 C 87 % 1017,0 hPa 0,0 l/m 0 min 0 min 0 W/m 3,2 km/h (1 Bft) 100,00 %
06.11.2022 00:35 8,5 C 7,2 C 4,4 C 87 % 1017,0 hPa 0,0 l/m 0 min 0 min 0 W/m 6,4 km/h (2 Bft) 100,00 %
06.11.2022 00:38 8,4 C 7,2 C 4,4 C 87 % 1017,0 hPa 0,0 l/m 0 min 0 min 0 W/m 3,2 km/h (1 Bft) 100,00 %
06.11.2022 00:43 8,3 C 7,2 C 4,4 C 88 % 1017,0 hPa 0,0 l/m 0 min 0 min 0 W/m 12,9 km/h (3 Bft) 97,62 %
06.11.2022 00:44 8,3 C 7,2 C 4,4 C 88 % 1017,0 hPa 0,0 l/m 0 min 0 min 0 W/m 6,4 km/h (2 Bft) 95,83 %
06.11.2022 00:46 8,3 C 7,2 C 4,4 C 88 % 1017,0 hPa 0,0 l/m 0 min 0 min 0 W/m 9,7 km/h (2 Bft) 97,83 %
06.11.2022 00:48 8,3 C 7,2 C 4,4 C 88 % 1017,0 hPa 0,0 l/m 0 min 0 min 0 W/m 6,4 km/h (2 Bft) 97,87 %
06.11.2022 00:50 8,2 C 7,2 C 4,4 C 88 % 1017,0 hPa 0,0 l/m 0 min 0 min 0 W/m 3,2 km/h (1 Bft) 95,74 %
06.11.2022 00:52 8,2 C 7,2 C 4,4 C 88 % 1017,0 hPa 0,0 l/m 0 min 0 min 0 W/m 6,4 km/h (2 Bft) 97,87 %
06.11.2022 00:54 8,2 C 7,2 C 4,4 C 88 % 1016,9 hPa 0,0 l/m 0 min 0 min 0 W/m 6,4 km/h (2 Bft) 97,87 %
06.11.2022 00:56 8,2 C 7,2 C 4,4 C 88 % 1016,9 hPa 0,0 l/m 0 min 0 min 0 W/m 6,4 km/h (2 Bft) 97,87 %
06.11.2022 00:58 8,1 C 7,2 C 3,9 C 88 % 1016,8 hPa 0,0 l/m 0 min 0 min 0 W/m 12,9 km/h (3 Bft) 95,74 %
06.11.2022 01:00 8,1 C 7,2 C 3,9 C 88 % 1016,8 hPa 0,0 l/m 0 min 0 min 0 W/m 6,4 km/h (2 Bft) 95,65 %
06.11.2022 01:02 8,1 C 7,2 C 3,9 C 88 % 1016,8 hPa 0,0 l/m 0 min 0 min 0 W/m 6,4 km/h (2 Bft) 95,74 %
06.11.2022 01:04 8,1 C 7,2 C 3,9 C 88 % 1016,9 hPa 0,0 l/m 0 min 0 min 0 W/m 6,4 km/h (2 Bft) 95,74 %
06.11.2022 01:06 8,0 C 7,2 C 3,9 C 88 % 1016,8 hPa 0,0 l/m 0 min 0 min 0 W/m 6,4 km/h (2 Bft) 94,92 %
06.11.2022 01:08 8,0 C 6,7 C 3,9 C 88 % 1016,9 hPa 0,0 l/m 0 min 0 min 0 W/m 9,7 km/h (2 Bft) 91,43 %
06.11.2022 01:10 7,9 C 6,7 C 3,9 C 88 % 1016,9 hPa 0,0 l/m 0 min 0 min 0 W/m 3,2 km/h (1 Bft) 93,48 %
06.11.2022 01:12 7,9 C 6,7 C 3,9 C 88 % 1016,9 hPa 0,0 l/m 0 min 0 min 0 W/m 3,2 km/h (1 Bft) 93,62 %
06.11.2022 01:14 7,9 C 6,7 C 3,9 C 89 % 1016,9 hPa 0,0 l/m 0 min 0 min 0 W/m 3,2 km/h (1 Bft) 93,62 %
06.11.2022 01:16 7,9 C 6,7 C 3,9 C 89 % 1016,8 hPa 0,0 l/m 0 min 0 min 0 W/m 3,2 km/h (1 Bft) 91,49 %
06.11.2022 01:18 7,8 C 6,7 C 3,9 C 89 % 1016,8 hPa 0,0 l/m 0 min 0 min 0 W/m 3,2 km/h (1 Bft) 95,74 %
06.11.2022 01:20 7,8 C 6,7 C 3,9 C 89 % 1016,8 hPa 0,0 l/m 0 min 0 min 0 W/m 6,4 km/h (2 Bft) 93,62 %
06.11.2022 01:22 7,8 C 6,7 C 3,9 C 89 % 1016,7 hPa 0,0 l/m 0 min 0 min 0 W/m 3,2 km/h (1 Bft) 93,48 %
06.11.2022 01:24 7,7 C 6,7 C 3,9 C 89 % 1016,7 hPa 0,0 l/m 0 min 0 min 0 W/m 6,4 km/h (2 Bft) 93,62 %
06.11.2022 01:26 7,7 C 6,7 C 3,9 C 89 % 1016,7 hPa 0,0 l/m 0 min 0 min 0 W/m 6,4 km/h (2 Bft) 93,62 %
06.11.2022 01:28 7,7 C 6,7 C 3,3 C 89 % 1016,6 hPa 0,0 l/m 0 min 0 min 0 W/m 6,4 km/h (2 Bft) 93,62 %
06.11.2022 01:30 7,6 C 6,7 C 3,3 C 89 % 1016,6 hPa 0,0 l/m 0 min 0 min 0 W/m 6,4 km/h (2 Bft) 93,62 %
06.11.2022 01:32 7,6 C 6,7 C 3,3 C 89 % 1016,5 hPa 0,0 l/m 0 min 0 min 0 W/m 16,1 km/h (3 Bft) 93,62 %
06.11.2022 01:34 7,5 C 6,7 C 3,3 C 89 % 1016,5 hPa 0,0 l/m 0 min 0 min 0 W/m 12,9 km/h (3 Bft) 91,30 %
06.11.2022 01:36 7,5 C 6,7 C 3,3 C 89 % 1016,6 hPa 0,0 l/m 0 min 0 min 0 W/m 16,1 km/h (3 Bft) 94,92 %
06.11.2022 01:38 7,4 C 6,7 C 3,3 C 90 % 1016,5 hPa 0,0 l/m 0 min 0 min 0 W/m 16,1 km/h (3 Bft) 97,14 %
06.11.2022 01:40 7,4 C 6,7 C 3,3 C 90 % 1016,5 hPa 0,0 l/m 0 min 0 min 0 W/m 12,9 km/h (3 Bft) 100,00 %
06.11.2022 01:42 7,4 C 6,7 C 3,3 C 90 % 1016,5 hPa 0,0 l/m 0 min 0 min 0 W/m 12,9 km/h (3 Bft) 100,00 %
06.11.2022 01:44 7,4 C 6,7 C 3,3 C 90 % 1016,5 hPa 0,0 l/m 0 min 0 min 0 W/m 16,1 km/h (3 Bft) 97,87 %
06.11.2022 01:46 7,3 C 6,7 C 3,3 C 90 % 1016,5 hPa 0,0 l/m 0 min 0 min 0 W/m 6,4 km/h (2 Bft) 100,00 %
06.11.2022 01:48 7,3 C 6,7 C 3,3 C 90 % 1016,5 hPa 0,0 l/m 0 min 0 min 0 W/m 6,4 km/h (2 Bft) 100,00 %
06.11.2022 01:50 7,3 C 6,1 C 3,3 C 90 % 1016,6 hPa 0,0 l/m 0 min 0 min 0 W/m 3,2 km/h (1 Bft) 100,00 %
06.11.2022 01:52 7,3 C 6,7 C 3,3 C 90 % 1016,5 hPa 0,0 l/m 0 min 0 min 0 W/m 12,9 km/h (3 Bft) 100,00 %
06.11.2022 01:54 7,3 C 6,1 C 3,3 C 90 % 1016,5 hPa 0,0 l/m 0 min 0 min 0 W/m 6,4 km/h (2 Bft) 97,87 %
06.11.2022 01:56 7,3 C 6,1 C 3,3 C 90 % 1016,5 hPa 0,0 l/m 0 min 0 min 0 W/m 12,9 km/h (3 Bft) 100,00 %
06.11.2022 01:58 7,2 C 6,1 C 3,3 C 91 % 1016,4 hPa 0,0 l/m 0 min 0 min 0 W/m 6,4 km/h (2 Bft) 100,00 %
06.11.2022 02:00 7,2 C 6,1 C 3,3 C 91 % 1016,5 hPa 0,0 l/m 0 min 0 min 0 W/m 6,4 km/h (2 Bft) 100,00 %
06.11.2022 02:02 7,2 C 6,1 C 3,3 C 91 % 1016,5 hPa 0,0 l/m 0 min 0 min 0 W/m 6,4 km/h (2 Bft) 100,00 %
06.11.2022 02:04 7,2 C 6,1 C 3,3 C 91 % 1016,6 hPa 0,0 l/m 0 min 0 min 0 W/m 6,4 km/h (2 Bft) 97,87 %
06.11.2022 02:06 7,2 C 6,1 C 3,3 C 91 % 1016,6 hPa 0,0 l/m 0 min 0 min 0 W/m 6,4 km/h (2 Bft) 100,00 %
06.11.2022 02:08 7,2 C 6,1 C 3,3 C 91 % 1016,6 hPa 0,0 l/m 0 min 0 min 0 W/m 6,4 km/h (2 Bft) 97,22 %
06.11.2022 02:10 7,2 C 6,1 C 3,3 C 91 % 1016,6 hPa 0,0 l/m 0 min 0 min 0 W/m 12,9 km/h (3 Bft) 100,00 %
06.11.2022 02:12 7,2 C 6,1 C 3,3 C 91 % 1016,6 hPa 0,0 l/m 0 min 0 min 0 W/m 12,9 km/h (3 Bft) 100,00 %
06.11.2022 02:14 7,2 C 6,1 C 3,3 C 91 % 1016,5 hPa 0,0 l/m 0 min 0 min 0 W/m 3,2 km/h (1 Bft) 97,87 %
06.11.2022 02:16 7,1 C 6,1 C 3,3 C 91 % 1016,5 hPa 0,0 l/m 0 min 0 min 0 W/m 6,4 km/h (2 Bft) 100,00 %
06.11.2022 02:18 7,1 C 6,1 C 3,3 C 91 % 1016,5 hPa 0,0 l/m 0 min 0 min 0 W/m 6,4 km/h (2 Bft) 100,00 %
06.11.2022 02:20 7,1 C 6,1 C 3,3 C 91 % 1016,6 hPa 0,0 l/m 0 min 0 min 0 W/m 3,2 km/h (1 Bft) 100,00 %
06.11.2022 02:22 7,1 C 6,1 C 3,3 C 91 % 1016,6 hPa 0,0 l/m 0 min 0 min 0 W/m 6,4 km/h (2 Bft) 97,83 %
06.11.2022 02:24 7,1 C 6,1 C 3,3 C 91 % 1016,5 hPa 0,0 l/m 0 min 0 min 0 W/m 3,2 km/h (1 Bft) 97,87 %
06.11.2022 02:26 7,1 C 6,1 C 3,3 C 91 % 1016,5 hPa 0,0 l/m 0 min 0 min 0 W/m 6,4 km/h (2 Bft) 100,00 %
06.11.2022 02:28 7,1 C 6,1 C 3,3 C 91 % 1016,4 hPa 0,0 l/m 0 min 0 min 0 W/m 16,1 km/h (3 Bft) 100,00 %
06.11.2022 02:30 7,1 C 6,1 C 3,3 C 91 % 1016,4 hPa 0,0 l/m 0 min 0 min 0 W/m 12,9 km/h (3 Bft) 100,00 %
06.11.2022 02:32 7,1 C 6,1 C 3,3 C 91 % 1016,4 hPa 0,0 l/m 0 min 0 min 0 W/m 16,1 km/h (3 Bft) 97,87 %
06.11.2022 02:35 7,1 C 6,1 C 3,3 C 91 % 1016,4 hPa 0,0 l/m 0 min 0 min 0 W/m 6,4 km/h (2 Bft) 98,78 %
06.11.2022 02:36 7,1 C 6,1 C 3,3 C 92 % 1016,4 hPa 0,0 l/m 0 min 0 min 0 W/m 12,9 km/h (3 Bft) 100,00 %
06.11.2022 02:38 7,1 C 6,1 C 3,3 C 92 % 1016,4 hPa 0,0 l/m 0 min 0 min 0 W/m 12,9 km/h (3 Bft) 100,00 %
06.11.2022 02:41 7,1 C 6,7 C 3,3 C 92 % 1016,5 hPa 0,0 l/m 0 min 0 min 0 W/m 12,9 km/h (3 Bft) 97,14 %
06.11.2022 02:42 7,1 C 6,7 C 3,3 C 92 % 1016,5 hPa 0,0 l/m 0 min 0 min 0 W/m 3,2 km/h (1 Bft) 100,00 %
06.11.2022 02:44 7,1 C 6,7 C 3,3 C 92 % 1016,5 hPa 0,0 l/m 0 min 0 min 0 W/m 12,9 km/h (3 Bft) 100,00 %
06.11.2022 02:46 7,1 C 6,7 C 3,3 C 92 % 1016,4 hPa 0,0 l/m 0 min 0 min 0 W/m 9,7 km/h (2 Bft) 97,83 %
06.11.2022 02:48 7,1 C 6,7 C 3,3 C 92 % 1016,3 hPa 0,0 l/m 0 min 0 min 0 W/m 12,9 km/h (3 Bft) 100,00 %
06.11.2022 02:50 7,1 C 6,7 C 3,3 C 92 % 1016,2 hPa 0,0 l/m 0 min 0 min 0 W/m 12,9 km/h (3 Bft) 97,87 %
06.11.2022 02:52 7,1 C 6,7 C 3,3 C 92 % 1016,2 hPa 0,0 l/m 0 min 0 min 0 W/m 12,9 km/h (3 Bft) 97,87 %
06.11.2022 02:54 7,1 C 6,7 C 3,3 C 92 % 1016,1 hPa 0,0 l/m 0 min 0 min 0 W/m 16,1 km/h (3 Bft) 97,14 %
06.11.2022 02:56 7,1 C 6,7 C 3,3 C 92 % 1016,1 hPa 0,0 l/m 0 min 0 min 0 W/m 16,1 km/h (3 Bft) 96,36 %
06.11.2022 02:58 7,1 C 6,7 C 3,3 C 92 % 1016,2 hPa 0,0 l/m 0 min 0 min 0 W/m 12,9 km/h (3 Bft) 95,92 %
06.11.2022 03:00 7,1 C 6,7 C 3,3 C 92 % 1016,2 hPa 0,0 l/m 0 min 0 min 0 W/m 6,4 km/h (2 Bft) 97,96 %
06.11.2022 03:02 7,1 C 6,7 C 3,3 C 92 % 1016,2 hPa 0,0 l/m 0 min 0 min 0 W/m 6,4 km/h (2 Bft) 97,83 %
06.11.2022 03:05 7,1 C 6,7 C 3,3 C 92 % 1016,1 hPa 0,0 l/m 0 min 0 min 0 W/m 6,4 km/h (2 Bft) 97,44 %
06.11.2022 03:06 7,1 C 6,7 C 3,3 C 92 % 1016,2 hPa 0,0 l/m 0 min 0 min 0 W/m 3,2 km/h (1 Bft) 91,30 %
06.11.2022 03:08 7,1 C 6,7 C 3,3 C 92 % 1016,1 hPa 0,0 l/m 0 min 0 min 0 W/m 12,9 km/h (3 Bft) 100,00 %
06.11.2022 03:10 7,1 C 6,7 C 3,3 C 92 % 1016,1 hPa 0,0 l/m 0 min 0 min 0 W/m 6,4 km/h (2 Bft) 97,87 %
06.11.2022 03:12 7,2 C 6,7 C 3,9 C 92 % 1016,1 hPa 0,0 l/m 0 min 0 min 0 W/m 12,9 km/h (3 Bft) 93,62 %
06.11.2022 03:14 7,2 C 6,7 C 3,9 C 92 % 1016,1 hPa 0,0 l/m 0 min 0 min 0 W/m 6,4 km/h (2 Bft) 96,00 %
06.11.2022 03:16 7,2 C 6,7 C 3,9 C 92 % 1016,1 hPa 0,0 l/m 0 min 0 min 0 W/m 12,9 km/h (3 Bft) 97,92 %
06.11.2022 03:18 7,2 C 6,7 C 3,9 C 92 % 1016,1 hPa 0,0 l/m 0 min 0 min 0 W/m 12,9 km/h (3 Bft) 97,87 %
06.11.2022 03:20 7,2 C 6,7 C 3,9 C 92 % 1016,1 hPa 0,0 l/m 0 min 0 min 0 W/m 12,9 km/h (3 Bft) 97,67 %
06.11.2022 03:22 7,3 C 6,7 C 3,9 C 92 % 1016,1 hPa 0,0 l/m 0 min 0 min 0 W/m 12,9 km/h (3 Bft) 97,96 %
06.11.2022 03:24 7,3 C 6,7 C 3,9 C 92 % 1016,1 hPa 0,0 l/m 0 min 0 min 0 W/m 6,4 km/h (2 Bft) 97,92 %
06.11.2022 03:26 7,3 C 6,7 C 3,9 C 92 % 1016,1 hPa 0,0 l/m 0 min 0 min 0 W/m 12,9 km/h (3 Bft) 97,87 %
06.11.2022 03:28 7,3 C 6,7 C 3,9 C 92 % 1016,1 hPa 0,0 l/m 0 min 0 min 0 W/m 12,9 km/h (3 Bft) 97,67 %
06.11.2022 03:30 7,3 C 6,7 C 3,9 C 92 % 1016,1 hPa 0,0 l/m 0 min 0 min 0 W/m 6,4 km/h (2 Bft) 96,00 %
06.11.2022 03:32 7,3 C 6,7 C 3,9 C 92 % 1016,0 hPa 0,0 l/m 0 min 0 min 0 W/m 6,4 km/h (2 Bft) 97,92 %
06.11.2022 03:34 7,3 C 6,7 C 3,9 C 92 % 1015,9 hPa 0,0 l/m 0 min 0 min 0 W/m 12,9 km/h (3 Bft) 97,87 %
06.11.2022 03:36 7,3 C 6,7 C 3,9 C 92 % 1015,8 hPa 0,0 l/m 0 min 0 min 0 W/m 12,9 km/h (3 Bft) 95,24 %
06.11.2022 03:38 7,4 C 6,7 C 3,9 C 92 % 1015,9 hPa 0,0 l/m 0 min 0 min 0 W/m 12,9 km/h (3 Bft) 96,00 %
06.11.2022 03:40 7,4 C 6,7 C 3,9 C 92 % 1015,9 hPa 0,0 l/m 0 min 0 min 0 W/m 12,9 km/h (3 Bft) 97,92 %
06.11.2022 03:42 7,4 C 6,7 C 3,9 C 92 % 1015,8 hPa 0,0 l/m 0 min 0 min 0 W/m 12,9 km/h (3 Bft) 85,11 %
06.11.2022 03:44 7,4 C 6,7 C 3,9 C 92 % 1015,8 hPa 0,0 l/m 0 min 0 min 0 W/m 16,1 km/h (3 Bft) 55,26 %
06.11.2022 03:46 7,4 C 6,7 C 3,9 C 92 % 1015,8 hPa 0,0 l/m 0 min 0 min 0 W/m 19,3 km/h (3 Bft) 98,00 %
06.11.2022 03:48 7,4 C 6,7 C 3,9 C 92 % 1015,8 hPa 0,0 l/m 0 min 0 min 0 W/m 6,4 km/h (2 Bft) 97,92 %
06.11.2022 03:50 7,4 C 6,7 C 3,9 C 92 % 1015,8 hPa 0,0 l/m 0 min 0 min 0 W/m 6,4 km/h (2 Bft) 97,87 %
06.11.2022 03:52 7,4 C 6,7 C 3,9 C 91 % 1015,8 hPa 0,0 l/m 0 min 0 min 0 W/m 16,1 km/h (3 Bft) 97,67 %
06.11.2022 03:54 7,4 C 6,7 C 3,9 C 91 % 1015,8 hPa 0,0 l/m 0 min 0 min 0 W/m 12,9 km/h (3 Bft) 98,00 %
06.11.2022 03:56 7,4 C 6,7 C 3,9 C 91 % 1015,8 hPa 0,0 l/m 0 min 0 min 0 W/m 16,1 km/h (3 Bft) 93,75 %
06.11.2022 03:58 7,4 C 6,7 C 3,9 C 91 % 1015,8 hPa 0,0 l/m 0 min 0 min 0 W/m 12,9 km/h (3 Bft) 95,74 %
06.11.2022 04:00 7,4 C 6,7 C 3,9 C 91 % 1015,8 hPa 0,0 l/m 0 min 0 min 0 W/m 6,4 km/h (2 Bft) 92,86 %
06.11.2022 04:05 7,4 C 6,7 C 3,9 C 91 % 1015,7 hPa 0,0 l/m 0 min 0 min 0 W/m 12,9 km/h (3 Bft) 100,00 %
06.11.2022 04:06 7,4 C 6,7 C 3,9 C 91 % 1015,7 hPa 0,0 l/m 0 min 0 min 0 W/m 6,4 km/h (2 Bft) 95,65 %
06.11.2022 04:08 7,4 C 6,7 C 3,9 C 91 % 1015,6 hPa 0,0 l/m 0 min 0 min 0 W/m 12,9 km/h (3 Bft) 97,87 %
06.11.2022 04:10 7,4 C 6,7 C 3,9 C 91 % 1015,6 hPa 0,0 l/m 0 min 0 min 0 W/m 16,1 km/h (3 Bft) 97,87 %
06.11.2022 04:12 7,4 C 6,7 C 3,9 C 91 % 1015,6 hPa 0,0 l/m 0 min 0 min 0 W/m 6,4 km/h (2 Bft) 97,92 %
06.11.2022 04:14 7,4 C 6,7 C 3,9 C 91 % 1015,6 hPa 0,0 l/m 0 min 0 min 0 W/m 6,4 km/h (2 Bft) 97,87 %
06.11.2022 04:16 7,4 C 6,7 C 3,9 C 91 % 1015,5 hPa 0,0 l/m 0 min 0 min 0 W/m 12,9 km/h (3 Bft) 97,67 %
06.11.2022 04:18 7,4 C 6,7 C 3,9 C 91 % 1015,5 hPa 0,0 l/m 0 min 0 min 0 W/m 6,4 km/h (2 Bft) 96,00 %
06.11.2022 04:20 7,4 C 6,7 C 3,9 C 91 % 1015,5 hPa 0,0 l/m 0 min 0 min 0 W/m 16,1 km/h (3 Bft) 97,92 %
06.11.2022 04:22 7,4 C 6,7 C 3,9 C 91 % 1015,6 hPa 0,0 l/m 0 min 0 min 0 W/m 12,9 km/h (3 Bft) 97,83 %
06.11.2022 04:24 7,4 C 6,7 C 3,9 C 91 % 1015,7 hPa 0,0 l/m 0 min 0 min 0 W/m 12,9 km/h (3 Bft) 97,67 %
06.11.2022 04:26 7,4 C 6,7 C 3,9 C 91 % 1015,7 hPa 0,0 l/m 0 min 0 min 0 W/m 16,1 km/h (3 Bft) 98,00 %
06.11.2022 04:28 7,4 C 6,7 C 3,9 C 91 % 1015,7 hPa 0,0 l/m 0 min 0 min 0 W/m 12,9 km/h (3 Bft) 97,92 %
06.11.2022 04:30 7,4 C 6,7 C 3,9 C 91 % 1015,7 hPa 0,0 l/m 0 min 0 min 0 W/m 16,1 km/h (3 Bft) 95,74 %
06.11.2022 04:32 7,4 C 6,7 C 3,9 C 91 % 1015,7 hPa 0,0 l/m 0 min 0 min 0 W/m 12,9 km/h (3 Bft) 95,24 %
06.11.2022 04:34 7,4 C 6,7 C 3,9 C 91 % 1015,7 hPa 0,0 l/m 0 min 0 min 0 W/m 6,4 km/h (2 Bft) 96,00 %
06.11.2022 04:36 7,4 C 6,7 C 3,9 C 91 % 1015,7 hPa 0,0 l/m 0 min 0 min 0 W/m 12,9 km/h (3 Bft) 95,83 %
06.11.2022 04:38 7,4 C 6,7 C 3,9 C 91 % 1015,7 hPa 0,0 l/m 0 min 0 min 0 W/m 12,9 km/h (3 Bft) 97,87 %
06.11.2022 04:40 7,4 C 6,7 C 3,9 C 91 % 1015,7 hPa 0,0 l/m 0 min 0 min 0 W/m 16,1 km/h (3 Bft) 97,67 %
06.11.2022 04:42 7,4 C 6,7 C 3,9 C 91 % 1015,8 hPa 0,0 l/m 0 min 0 min 0 W/m 16,1 km/h (3 Bft) 93,88 %
06.11.2022 04:44 7,4 C 6,7 C 3,9 C 91 % 1015,8 hPa 0,0 l/m 0 min 0 min 0 W/m 12,9 km/h (3 Bft) 93,88 %
06.11.2022 04:47 7,4 C 6,7 C 3,9 C 91 % 1015,8 hPa 0,0 l/m 0 min 0 min 0 W/m 12,9 km/h (3 Bft) 98,57 %
06.11.2022 04:48 7,4 C 6,7 C 3,9 C 91 % 1015,7 hPa 0,0 l/m 0 min 0 min 0 W/m 12,9 km/h (3 Bft) 95,65 %
06.11.2022 04:50 7,4 C 6,7 C 3,9 C 91 % 1015,7 hPa 0,0 l/m 0 min 0 min 0 W/m 12,9 km/h (3 Bft) 97,87 %
06.11.2022 04:53 7,4 C 6,7 C 3,9 C 91 % 1015,6 hPa 0,0 l/m 0 min 0 min 0 W/m 12,9 km/h (3 Bft) 97,14 %
06.11.2022 04:54 7,4 C 6,7 C 3,9 C 91 % 1015,6 hPa 0,0 l/m 0 min 0 min 0 W/m 3,2 km/h (1 Bft) 91,67 %
06.11.2022 04:56 7,4 C 6,7 C 3,9 C 91 % 1015,7 hPa 0,0 l/m 0 min 0 min 0 W/m 16,1 km/h (3 Bft) 95,74 %
06.11.2022 04:58 7,4 C 6,7 C 3,9 C 91 % 1015,6 hPa 0,0 l/m 0 min 0 min 0 W/m 6,4 km/h (2 Bft) 97,83 %
06.11.2022 05:00 7,4 C 6,7 C 3,9 C 91 % 1015,6 hPa 0,0 l/m 0 min 0 min 0 W/m 12,9 km/h (3 Bft) 97,67 %
06.11.2022 05:02 7,4 C 6,7 C 3,9 C 91 % 1015,6 hPa 0,0 l/m 0 min 0 min 0 W/m 16,1 km/h (3 Bft) 94,00 %
06.11.2022 05:04 7,4 C 6,7 C 3,9 C 91 % 1015,6 hPa 0,0 l/m 0 min 0 min 0 W/m 6,4 km/h (2 Bft) 97,96 %
06.11.2022 05:07 7,4 C 6,7 C 3,9 C 91 % 1015,5 hPa 0,0 l/m 0 min 0 min 0 W/m 6,4 km/h (2 Bft) 95,77 %
06.11.2022 05:08 7,4 C 6,7 C 3,9 C 91 % 1015,5 hPa 0,0 l/m 0 min 0 min 0 W/m 6,4 km/h (2 Bft) 100,00 %
06.11.2022 05:10 7,4 C 6,7 C 3,9 C 91 % 1015,5 hPa 0,0 l/m 0 min 0 min 0 W/m 19,3 km/h (3 Bft) 97,83 %
06.11.2022 05:12 7,3 C 6,7 C 3,3 C 91 % 1015,5 hPa 0,0 l/m 0 min 0 min 0 W/m 12,9 km/h (3 Bft) 100,00 %
06.11.2022 05:14 7,3 C 6,7 C 3,3 C 91 % 1015,4 hPa 0,0 l/m 0 min 0 min 0 W/m 12,9 km/h (3 Bft) 97,87 %
06.11.2022 05:16 7,3 C 6,7 C 3,3 C 91 % 1015,4 hPa 0,0 l/m 0 min 0 min 0 W/m 12,9 km/h (3 Bft) 97,14 %
06.11.2022 05:18 7,3 C 6,7 C 3,3 C 91 % 1015,5 hPa 0,0 l/m 0 min 0 min 0 W/m 12,9 km/h (3 Bft) 98,18 %
06.11.2022 05:20 7,3 C 6,7 C 3,3 C 91 % 1015,4 hPa 0,0 l/m 0 min 0 min 0 W/m 6,4 km/h (2 Bft) 98,00 %
06.11.2022 05:22 7,3 C 6,7 C 3,3 C 91 % 1015,3 hPa 0,0 l/m 0 min 0 min 0 W/m 16,1 km/h (3 Bft) 100,00 %
06.11.2022 05:25 7,3 C 6,7 C 3,3 C 91 % 1015,3 hPa 0,0 l/m 0 min 0 min 0 W/m 16,1 km/h (3 Bft) 98,59 %
06.11.2022 05:26 7,2 C 6,7 C 3,3 C 91 % 1015,3 hPa 0,0 l/m 0 min 0 min 0 W/m 3,2 km/h (1 Bft) 100,00 %
06.11.2022 05:30 7,2 C 6,7 C 3,3 C 91 % 1015,2 hPa 0,0 l/m 0 min 0 min 0 W/m 12,9 km/h (3 Bft) 98,11 %
06.11.2022 05:32 7,2 C 6,7 C 3,3 C 91 % 1015,2 hPa 0,0 l/m 0 min 0 min 0 W/m 12,9 km/h (3 Bft) 100,00 %
06.11.2022 05:34 7,2 C 6,7 C 3,3 C 91 % 1015,3 hPa 0,0 l/m 0 min 0 min 0 W/m 12,9 km/h (3 Bft) 97,87 %
06.11.2022 05:36 7,2 C 6,7 C 3,3 C 91 % 1015,3 hPa 0,0 l/m 0 min 0 min 0 W/m 16,1 km/h (3 Bft) 100,00 %
06.11.2022 05:38 7,2 C 6,7 C 3,3 C 91 % 1015,2 hPa 0,0 l/m 0 min 0 min 0 W/m 19,3 km/h (3 Bft) 97,87 %
06.11.2022 05:40 7,2 C 6,7 C 3,3 C 92 % 1015,2 hPa 0,0 l/m 0 min 0 min 0 W/m 12,9 km/h (3 Bft) 97,87 %
06.11.2022 05:42 7,2 C 6,7 C 3,9 C 92 % 1015,2 hPa 0,0 l/m 0 min 0 min 0 W/m 16,1 km/h (3 Bft) 100,00 %
06.11.2022 05:44 7,2 C 6,7 C 3,9 C 92 % 1015,1 hPa 0,0 l/m 0 min 0 min 0 W/m 16,1 km/h (3 Bft) 97,87 %
06.11.2022 05:46 7,2 C 6,7 C 3,9 C 92 % 1015,1 hPa 0,0 l/m 0 min 0 min 0 W/m 19,3 km/h (3 Bft) 100,00 %
06.11.2022 05:48 7,3 C 6,7 C 3,9 C 92 % 1015,0 hPa 0,0 l/m 0 min 0 min 0 W/m 12,9 km/h (3 Bft) 100,00 %
06.11.2022 05:51 7,3 C 6,7 C 3,9 C 92 % 1015,0 hPa 0,0 l/m 0 min 0 min 0 W/m 16,1 km/h (3 Bft) 95,12 %
06.11.2022 05:52 7,3 C 6,7 C 3,9 C 92 % 1014,9 hPa 0,0 l/m 0 min 0 min 0 W/m 16,1 km/h (3 Bft) 95,83 %
06.11.2022 05:54 7,3 C 6,7 C 3,9 C 92 % 1014,9 hPa 0,0 l/m 0 min 0 min 0 W/m 19,3 km/h (3 Bft) 91,43 %
06.11.2022 05:57 7,3 C 6,7 C 3,9 C 92 % 1014,8 hPa 0,0 l/m 0 min 0 min 0 W/m 16,1 km/h (3 Bft) 95,12 %
06.11.2022 05:58 7,3 C 6,7 C 3,9 C 92 % 1014,8 hPa 0,0 l/m 0 min 0 min 0 W/m 16,1 km/h (3 Bft) 100,00 %
06.11.2022 06:00 7,3 C 6,7 C 3,9 C 92 % 1014,8 hPa 0,0 l/m 0 min 0 min 0 W/m 16,1 km/h (3 Bft) 97,83 %
06.11.2022 06:02 7,3 C 6,7 C 3,9 C 92 % 1014,7 hPa 0,0 l/m 0 min 0 min 0 W/m 19,3 km/h (3 Bft) 95,74 %
06.11.2022 06:04 7,3 C 6,7 C 3,9 C 92 % 1014,7 hPa 0,0 l/m 0 min 0 min 0 W/m 16,1 km/h (3 Bft) 97,92 %
06.11.2022 06:08 7,3 C 6,7 C 3,9 C 92 % 1014,7 hPa 0,0 l/m 0 min 0 min 0 W/m 16,1 km/h (3 Bft) 95,00 %
06.11.2022 06:10 7,3 C 6,7 C 3,9 C 92 % 1014,6 hPa 0,0 l/m 0 min 0 min 0 W/m 12,9 km/h (3 Bft) 98,00 %
06.11.2022 06:12 7,3 C 6,7 C 3,3 C 92 % 1014,6 hPa 0,0 l/m 0 min 0 min 0 W/m 16,1 km/h (3 Bft) 93,88 %
06.11.2022 06:14 7,3 C 6,7 C 3,3 C 92 % 1014,6 hPa 0,0 l/m 0 min 0 min 0 W/m 16,1 km/h (3 Bft) 100,00 %
06.11.2022 06:16 7,3 C 6,7 C 3,3 C 92 % 1014,5 hPa 0,0 l/m 0 min 0 min 0 W/m 19,3 km/h (3 Bft) 96,23 %
06.11.2022 06:18 7,2 C 6,7 C 3,3 C 92 % 1014,5 hPa 0,0 l/m 0 min 0 min 0 W/m 12,9 km/h (3 Bft) 96,00 %
06.11.2022 06:20 7,2 C 6,7 C 3,3 C 92 % 1014,5 hPa 0,0 l/m 0 min 0 min 0 W/m 16,1 km/h (3 Bft) 100,00 %
06.11.2022 06:22 7,2 C 6,7 C 3,3 C 92 % 1014,5 hPa 0,0 l/m 0 min 0 min 0 W/m 16,1 km/h (3 Bft) 94,29 %
06.11.2022 06:24 7,2 C 6,7 C 3,3 C 92 % 1014,5 hPa 0,0 l/m 0 min 0 min 0 W/m 16,1 km/h (3 Bft) 96,30 %
06.11.2022 06:26 7,2 C 6,7 C 3,3 C 92 % 1014,5 hPa 0,0 l/m 0 min 0 min 0 W/m 19,3 km/h (3 Bft) 98,00 %
06.11.2022 06:28 7,2 C 6,7 C 3,3 C 92 % 1014,6 hPa 0,0 l/m 0 min 0 min 0 W/m 12,9 km/h (3 Bft) 97,96 %
06.11.2022 06:30 7,2 C 6,7 C 3,3 C 92 % 1014,5 hPa 0,0 l/m 0 min 0 min 0 W/m 22,5 km/h (4 Bft) 91,43 %
06.11.2022 06:32 7,2 C 6,7 C 3,3 C 92 % 1014,5 hPa 0,0 l/m 0 min 0 min 0 W/m 19,3 km/h (3 Bft) 96,23 %
06.11.2022 06:34 7,2 C 6,7 C 3,3 C 92 % 1014,5 hPa 0,0 l/m 0 min 0 min 0 W/m 22,5 km/h (4 Bft) 96,00 %
06.11.2022 06:36 7,2 C 6,7 C 3,3 C 92 % 1014,4 hPa 0,0 l/m 0 min 0 min 0 W/m 19,3 km/h (3 Bft) 97,96 %
06.11.2022 06:38 7,2 C 6,7 C 3,3 C 92 % 1014,5 hPa 0,0 l/m 0 min 0 min 0 W/m 12,9 km/h (3 Bft) 97,14 %
06.11.2022 06:40 7,2 C 6,7 C 3,3 C 92 % 1014,5 hPa 0,0 l/m 0 min 0 min 0 W/m 16,1 km/h (3 Bft) 98,11 %
06.11.2022 06:42 7,2 C 6,7 C 3,3 C 92 % 1014,5 hPa 0,0 l/m 0 min 0 min 0 W/m 16,1 km/h (3 Bft) 92,00 %
06.11.2022 06:44 7,2 C 6,7 C 3,3 C 92 % 1014,5 hPa 0,0 l/m 0 min 0 min 0 W/m 16,1 km/h (3 Bft) 93,88 %
06.11.2022 06:46 7,2 C 6,7 C 3,3 C 92 % 1014,4 hPa 0,0 l/m 0 min 0 min 0 W/m 16,1 km/h (3 Bft) 97,14 %
06.11.2022 06:48 7,2 C 6,7 C 3,3 C 92 % 1014,4 hPa 0,0 l/m 0 min 0 min 0 W/m 16,1 km/h (3 Bft) 98,15 %
06.11.2022 06:50 7,2 C 6,7 C 3,3 C 92 % 1014,3 hPa 0,0 l/m 0 min 0 min 0 W/m 12,9 km/h (3 Bft) 97,96 %
06.11.2022 06:52 7,2 C 6,7 C 3,3 C 92 % 1014,3 hPa 0,0 l/m 0 min 0 min 0 W/m 9,7 km/h (2 Bft) 98,00 %
06.11.2022 06:54 7,2 C 6,7 C 3,3 C 92 % 1014,2 hPa 0,0 l/m 0 min 0 min 0 W/m 16,1 km/h (3 Bft) 95,65 %
06.11.2022 06:56 7,2 C 6,7 C 3,3 C 92 % 1014,2 hPa 0,0 l/m 0 min 0 min 0 W/m 16,1 km/h (3 Bft) 100,00 %
06.11.2022 06:58 7,2 C 6,7 C 3,3 C 92 % 1014,2 hPa 0,0 l/m 0 min 0 min 0 W/m 22,5 km/h (4 Bft) 94,34 %
06.11.2022 07:00 7,2 C 6,7 C 3,3 C 92 % 1014,2 hPa 0,0 l/m 0 min 0 min 0 W/m 12,9 km/h (3 Bft) 98,00 %
06.11.2022 07:02 7,2 C 6,7 C 3,3 C 92 % 1014,2 hPa 0,0 l/m 0 min 0 min 0 W/m 12,9 km/h (3 Bft) 97,96 %
06.11.2022 07:04 7,2 C 6,7 C 3,3 C 92 % 1014,2 hPa 0,0 l/m 0 min 0 min 0 W/m 16,1 km/h (3 Bft) 94,29 %
06.11.2022 07:07 7,2 C 6,7 C 3,3 C 92 % 1014,1 hPa 0,0 l/m 0 min 0 min 0 W/m 16,1 km/h (3 Bft) 89,61 %
06.11.2022 07:08 7,1 C 6,7 C 3,3 C 92 % 1014,1 hPa 0,0 l/m 0 min 0 min 0 W/m 12,9 km/h (3 Bft) 91,30 %
06.11.2022 07:10 7,2 C 6,7 C 3,3 C 92 % 1014,2 hPa 0,0 l/m 0 min 0 min 0 W/m 12,9 km/h (3 Bft) 95,74 %
06.11.2022 07:12 7,1 C 6,7 C 3,3 C 92 % 1014,1 hPa 0,0 l/m 0 min 0 min 0 W/m 12,9 km/h (3 Bft) 97,87 %
06.11.2022 07:15 7,1 C 6,7 C 3,3 C 92 % 1014,1 hPa 0,0 l/m 0 min 0 min 0 W/m 16,1 km/h (3 Bft) 97,14 %
06.11.2022 07:16 7,2 C 6,7 C 3,3 C 92 % 1014,1 hPa 0,0 l/m 0 min 0 min 0 W/m 9,7 km/h (2 Bft) 95,65 %
06.11.2022 07:18 7,2 C 6,7 C 3,3 C 92 % 1014,0 hPa 0,0 l/m 0 min 0 min 0 W/m 12,9 km/h (3 Bft) 100,00 %
06.11.2022 07:20 7,2 C 6,7 C 3,3 C 92 % 1014,0 hPa 0,0 l/m 0 min 0 min 0 W/m 12,9 km/h (3 Bft) 97,87 %
06.11.2022 07:22 7,2 C 6,7 C 3,3 C 92 % 1014,0 hPa 0,0 l/m 0 min 0 min 0 W/m 12,9 km/h (3 Bft) 95,74 %
06.11.2022 07:24 7,2 C 6,7 C 3,3 C 92 % 1013,9 hPa 0,0 l/m 0 min 0 min 0 W/m 16,1 km/h (3 Bft) 95,74 %
06.11.2022 07:27 7,2 C 6,7 C 3,3 C 92 % 1013,9 hPa 0,0 l/m 0 min 0 min 0 W/m 16,1 km/h (3 Bft) 94,29 %
06.11.2022 07:28 7,2 C 6,7 C 3,3 C 92 % 1013,9 hPa 0,0 l/m 0 min 0 min 0 W/m 16,1 km/h (3 Bft) 95,65 %
06.11.2022 07:30 7,2 C 6,7 C 3,9 C 92 % 1013,9 hPa 0,0 l/m 0 min 0 min 0 W/m 12,9 km/h (3 Bft) 97,87 %
06.11.2022 07:32 7,2 C 6,7 C 3,3 C 92 % 1014,0 hPa 0,0 l/m 0 min 0 min 0 W/m 16,1 km/h (3 Bft) 95,74 %
06.11.2022 07:34 7,2 C 6,7 C 3,9 C 93 % 1014,0 hPa 0,0 l/m 0 min 0 min 0 W/m 19,3 km/h (3 Bft) 95,74 %
06.11.2022 07:36 7,2 C 6,7 C 3,9 C 92 % 1014,0 hPa 0,0 l/m 0 min 0 min 0 W/m 25,7 km/h (4 Bft) 95,65 %
06.11.2022 07:38 7,3 C 6,7 C 3,9 C 92 % 1014,0 hPa 0,0 l/m 0 min 0 min 4 W/m 16,1 km/h (3 Bft) 93,62 %
06.11.2022 07:40 7,3 C 6,7 C 3,9 C 92 % 1014,1 hPa 0,0 l/m 0 min 0 min 5 W/m 16,1 km/h (3 Bft) 97,87 %
06.11.2022 07:42 7,3 C 6,7 C 3,9 C 92 % 1014,1 hPa 0,0 l/m 0 min 0 min 5 W/m 12,9 km/h (3 Bft) 95,74 %
06.11.2022 07:48 7,4 C 6,7 C 3,9 C 92 % 1014,2 hPa 0,0 l/m 0 min 0 min 8 W/m 16,1 km/h (3 Bft) 96,15 %
06.11.2022 07:50 7,4 C 6,7 C 3,9 C 93 % 1014,2 hPa 0,0 l/m 0 min 0 min 9 W/m 12,9 km/h (3 Bft) 97,87 %
06.11.2022 07:52 7,4 C 6,7 C 3,9 C 93 % 1014,2 hPa 0,0 l/m 0 min 0 min 10 W/m 12,9 km/h (3 Bft) 97,87 %
06.11.2022 07:54 7,4 C 6,7 C 3,9 C 92 % 1014,2 hPa 0,0 l/m 0 min 0 min 11 W/m 16,1 km/h (3 Bft) 100,00 %
06.11.2022 07:56 7,4 C 6,7 C 3,9 C 92 % 1014,2 hPa 0,0 l/m 0 min 0 min 11 W/m 16,1 km/h (3 Bft) 100,00 %
06.11.2022 07:58 7,5 C 6,7 C 3,9 C 92 % 1014,2 hPa 0,0 l/m 0 min 0 min 12 W/m 12,9 km/h (3 Bft) 97,87 %
06.11.2022 08:00 7,5 C 6,7 C 3,9 C 92 % 1014,2 hPa 0,0 l/m 0 min 0 min 12 W/m 12,9 km/h (3 Bft) 100,00 %
06.11.2022 08:02 7,5 C 7,2 C 3,9 C 92 % 1014,2 hPa 0,0 l/m 0 min 0 min 12 W/m 19,3 km/h (3 Bft) 97,87 %
06.11.2022 08:04 7,6 C 7,2 C 3,9 C 92 % 1014,2 hPa 0,0 l/m 0 min 0 min 12 W/m 12,9 km/h (3 Bft) 100,00 %
06.11.2022 08:06 7,6 C 7,2 C 3,9 C 92 % 1014,2 hPa 0,0 l/m 0 min 0 min 14 W/m 12,9 km/h (3 Bft) 98,28 %
06.11.2022 08:08 7,6 C 7,2 C 3,9 C 92 % 1014,2 hPa 0,0 l/m 0 min 0 min 14 W/m 12,9 km/h (3 Bft) 100,00 %
06.11.2022 08:10 7,6 C 7,2 C 3,9 C 92 % 1014,2 hPa 0,0 l/m 0 min 0 min 14 W/m 19,3 km/h (3 Bft) 97,87 %
06.11.2022 08:12 7,6 C 7,2 C 3,9 C 92 % 1014,2 hPa 0,0 l/m 0 min 0 min 16 W/m 19,3 km/h (3 Bft) 97,87 %
06.11.2022 08:14 7,7 C 7,2 C 3,9 C 92 % 1014,3 hPa 0,0 l/m 0 min 0 min 16 W/m 22,5 km/h (4 Bft) 100,00 %
06.11.2022 08:16 7,7 C 7,2 C 4,4 C 92 % 1014,2 hPa 0,0 l/m 0 min 0 min 16 W/m 16,1 km/h (3 Bft) 95,74 %
06.11.2022 08:18 7,7 C 7,2 C 4,4 C 92 % 1014,2 hPa 0,0 l/m 0 min 0 min 18 W/m 19,3 km/h (3 Bft) 97,83 %
06.11.2022 08:20 7,7 C 7,2 C 4,4 C 92 % 1014,3 hPa 0,0 l/m 0 min 0 min 19 W/m 16,1 km/h (3 Bft) 93,62 %
06.11.2022 08:22 7,8 C 7,2 C 4,4 C 92 % 1014,3 hPa 0,0 l/m 0 min 0 min 20 W/m 16,1 km/h (3 Bft) 95,74 %
06.11.2022 08:24 7,8 C 7,2 C 4,4 C 92 % 1014,3 hPa 0,0 l/m 0 min 0 min 21 W/m 22,5 km/h (4 Bft) 93,62 %
06.11.2022 08:26 7,8 C 7,2 C 4,4 C 92 % 1014,3 hPa 0,0 l/m 0 min 0 min 22 W/m 16,1 km/h (3 Bft) 95,74 %
06.11.2022 08:29 7,9 C 7,8 C 4,4 C 92 % 1014,3 hPa 0,0 l/m 0 min 0 min 26 W/m 19,3 km/h (3 Bft) 93,90 %
06.11.2022 08:30 7,9 C 7,8 C 4,4 C 92 % 1014,3 hPa 0,0 l/m 0 min 0 min 28 W/m 19,3 km/h (3 Bft) 91,67 %
06.11.2022 08:32 8,0 C 7,8 C 4,4 C 92 % 1014,3 hPa 0,0 l/m 0 min 0 min 28 W/m 16,1 km/h (3 Bft) 95,65 %
06.11.2022 08:34 8,1 C 7,8 C 4,4 C 92 % 1014,2 hPa 0,0 l/m 0 min 0 min 28 W/m 12,9 km/h (3 Bft) 93,62 %
06.11.2022 08:36 8,1 C 7,8 C 4,4 C 92 % 1014,3 hPa 0,0 l/m 0 min 0 min 28 W/m 25,7 km/h (4 Bft) 94,92 %
06.11.2022 08:38 8,1 C 7,8 C 4,4 C 92 % 1014,2 hPa 0,0 l/m 0 min 0 min 33 W/m 12,9 km/h (3 Bft) 94,29 %
06.11.2022 08:40 8,1 C 7,8 C 4,4 C 91 % 1014,2 hPa 0,0 l/m 0 min 0 min 34 W/m 19,3 km/h (3 Bft) 93,62 %
06.11.2022 08:42 8,2 C 7,8 C 4,4 C 91 % 1014,2 hPa 0,0 l/m 0 min 0 min 35 W/m 19,3 km/h (3 Bft) 93,48 %
06.11.2022 08:44 8,2 C 7,8 C 5,0 C 91 % 1014,2 hPa 0,0 l/m 0 min 0 min 35 W/m 19,3 km/h (3 Bft) 93,62 %
06.11.2022 08:46 8,3 C 7,8 C 5,0 C 91 % 1014,1 hPa 0,0 l/m 0 min 0 min 40 W/m 25,7 km/h (4 Bft) 95,74 %
06.11.2022 08:48 8,3 C 7,8 C 5,0 C 91 % 1014,2 hPa 0,0 l/m 0 min 0 min 40 W/m 16,1 km/h (3 Bft) 95,74 %
06.11.2022 08:50 8,3 C 7,8 C 5,0 C 91 % 1014,2 hPa 0,0 l/m 0 min 0 min 41 W/m 12,9 km/h (3 Bft) 93,62 %
06.11.2022 08:52 8,4 C 7,8 C 5,0 C 91 % 1014,2 hPa 0,0 l/m 0 min 0 min 34 W/m 16,1 km/h (3 Bft) 97,87 %
06.11.2022 08:54 8,4 C 8,3 C 5,0 C 91 % 1014,1 hPa 0,0 l/m 0 min 0 min 33 W/m 32,2 km/h (5 Bft) 97,83 %
06.11.2022 08:56 8,4 C 8,3 C 5,0 C 91 % 1014,1 hPa 0,0 l/m 0 min 0 min 29 W/m 16,1 km/h (3 Bft) 97,87 %
06.11.2022 08:58 8,4 C 7,8 C 5,0 C 91 % 1014,1 hPa 0,0 l/m 0 min 0 min 25 W/m 19,3 km/h (3 Bft) 97,87 %
06.11.2022 09:00 8,4 C 7,8 C 5,0 C 90 % 1014,1 hPa 0,0 l/m 0 min 0 min 23 W/m 16,1 km/h (3 Bft) 97,87 %
06.11.2022 09:02 8,5 C 7,8 C 5,0 C 90 % 1014,2 hPa 0,0 l/m 0 min 0 min 24 W/m 19,3 km/h (3 Bft) 97,87 %
06.11.2022 09:04 8,5 C 7,8 C 5,0 C 91 % 1014,0 hPa 0,0 l/m 0 min 0 min 26 W/m 19,3 km/h (3 Bft) 97,87 %
06.11.2022 09:06 8,5 C 7,8 C 5,0 C 90 % 1014,2 hPa 0,0 l/m 0 min 0 min 31 W/m 12,9 km/h (3 Bft) 100,00 %
06.11.2022 09:08 8,5 C 7,8 C 5,0 C 90 % 1014,1 hPa 0,0 l/m 0 min 0 min 35 W/m 16,1 km/h (3 Bft) 100,00 %
06.11.2022 09:10 8,5 C 7,8 C 5,0 C 90 % 1014,1 hPa 0,0 l/m 0 min 0 min 42 W/m 12,9 km/h (3 Bft) 100,00 %
06.11.2022 09:12 8,6 C 8,3 C 5,0 C 90 % 1014,1 hPa 0,0 l/m 0 min 0 min 53 W/m 25,7 km/h (4 Bft) 100,00 %
06.11.2022 09:14 8,6 C 8,3 C 5,0 C 90 % 1014,1 hPa 0,0 l/m 0 min 0 min 67 W/m 19,3 km/h (3 Bft) 100,00 %
06.11.2022 09:16 8,6 C 8,3 C 5,0 C 90 % 1014,1 hPa 0,0 l/m 0 min 0 min 67 W/m 16,1 km/h (3 Bft) 100,00 %
06.11.2022 09:18 8,7 C 8,3 C 5,0 C 90 % 1014,1 hPa 0,0 l/m 0 min 0 min 75 W/m 22,5 km/h (4 Bft) 100,00 %
06.11.2022 09:21 8,8 C 8,9 C 5,6 C 90 % 1014,2 hPa 0,0 l/m 0 min 0 min 96 W/m 19,3 km/h (3 Bft) 98,78 %
06.11.2022 09:22 8,8 C 8,9 C 5,6 C 90 % 1014,2 hPa 0,0 l/m 0 min 0 min 103 W/m 16,1 km/h (3 Bft) 100,00 %
06.11.2022 09:26 9,1 C 9,4 C 5,6 C 90 % 1014,0 hPa 0,0 l/m 0 min 0 min 107 W/m 22,5 km/h (4 Bft) 99,05 %
06.11.2022 09:28 9,1 C 9,4 C 5,6 C 90 % 1014,0 hPa 0,0 l/m 0 min 0 min 111 W/m 12,9 km/h (3 Bft) 100,00 %
06.11.2022 09:30 9,2 C 9,4 C 6,1 C 90 % 1014,0 hPa 0,0 l/m 0 min 0 min 110 W/m 19,3 km/h (3 Bft) 100,00 %
06.11.2022 09:33 9,3 C 9,4 C 6,1 C 90 % 1014,0 hPa 0,0 l/m 0 min 0 min 109 W/m 22,5 km/h (4 Bft) 100,00 %
06.11.2022 09:34 9,3 C 9,4 C 6,1 C 90 % 1014,0 hPa 0,0 l/m 0 min 0 min 105 W/m 12,9 km/h (3 Bft) 100,00 %
06.11.2022 09:36 9,4 C 9,4 C 6,1 C 90 % 1013,9 hPa 0,0 l/m 0 min 0 min 95 W/m 9,7 km/h (2 Bft) 100,00 %
06.11.2022 09:38 9,4 C 9,4 C 6,1 C 89 % 1013,9 hPa 0,0 l/m 0 min 0 min 89 W/m 12,9 km/h (3 Bft) 100,00 %
06.11.2022 09:40 9,4 C 9,4 C 6,1 C 89 % 1013,9 hPa 0,0 l/m 0 min 0 min 88 W/m 22,5 km/h (4 Bft) 100,00 %
06.11.2022 09:42 9,5 C 9,4 C 6,1 C 89 % 1013,9 hPa 0,0 l/m 0 min 0 min 88 W/m 9,7 km/h (2 Bft) 100,00 %
06.11.2022 09:44 9,5 C 9,4 C 6,1 C 89 % 1013,9 hPa 0,0 l/m 0 min 0 min 88 W/m 19,3 km/h (3 Bft) 97,87 %
06.11.2022 09:46 9,5 C 9,4 C 6,1 C 89 % 1013,9 hPa 0,0 l/m 0 min 0 min 88 W/m 16,1 km/h (3 Bft) 100,00 %
06.11.2022 09:48 9,6 C 9,4 C 6,1 C 89 % 1013,7 hPa 0,0 l/m 0 min 0 min 88 W/m 22,5 km/h (4 Bft) 100,00 %
06.11.2022 09:50 9,6 C 9,4 C 6,1 C 89 % 1013,7 hPa 0,0 l/m 0 min 0 min 89 W/m 16,1 km/h (3 Bft) 100,00 %
06.11.2022 09:52 9,6 C 9,4 C 6,1 C 89 % 1013,6 hPa 0,0 l/m 0 min 0 min 92 W/m 12,9 km/h (3 Bft) 100,00 %
06.11.2022 09:54 9,6 C 9,4 C 6,1 C 88 % 1013,6 hPa 0,0 l/m 0 min 0 min 101 W/m 16,1 km/h (3 Bft) 97,87 %
06.11.2022 09:56 9,6 C 9,4 C 6,1 C 88 % 1013,6 hPa 0,0 l/m 0 min 0 min 101 W/m 22,5 km/h (4 Bft) 97,87 %
06.11.2022 09:58 9,6 C 9,4 C 6,1 C 88 % 1013,6 hPa 0,0 l/m 0 min 0 min 112 W/m 16,1 km/h (3 Bft) 97,87 %
06.11.2022 10:00 9,7 C 10,0 C 6,1 C 88 % 1013,6 hPa 0,0 l/m 0 min 0 min 130 W/m 22,5 km/h (4 Bft) 97,87 %
06.11.2022 10:02 9,7 C 10,0 C 6,1 C 88 % 1013,5 hPa 0,0 l/m 0 min 0 min 141 W/m 29,0 km/h (5 Bft) 97,87 %
06.11.2022 10:04 9,7 C 10,6 C 6,1 C 88 % 1013,6 hPa 0,0 l/m 2 min 0 min 150 W/m 16,1 km/h (3 Bft) 97,87 %
06.11.2022 10:06 9,8 C 10,6 C 6,1 C 88 % 1013,5 hPa 0,0 l/m 0 min 0 min 140 W/m 19,3 km/h (3 Bft) 96,61 %
06.11.2022 10:08 9,8 C 10,0 C 6,1 C 88 % 1013,5 hPa 0,0 l/m 0 min 0 min 118 W/m 19,3 km/h (3 Bft) 94,29 %
06.11.2022 10:10 9,9 C 10,0 C 6,1 C 88 % 1013,4 hPa 0,0 l/m 0 min 0 min 115 W/m 22,5 km/h (4 Bft) 97,87 %
06.11.2022 10:12 9,9 C 10,0 C 6,1 C 88 % 1013,3 hPa 0,0 l/m 0 min 0 min 118 W/m 19,3 km/h (3 Bft) 97,87 %
06.11.2022 10:14 9,9 C 10,0 C 6,7 C 88 % 1013,4 hPa 0,0 l/m 0 min 0 min 120 W/m 16,1 km/h (3 Bft) 97,87 %
06.11.2022 10:16 10,0 C 10,0 C 6,7 C 88 % 1013,4 hPa 0,0 l/m 0 min 0 min 130 W/m 22,5 km/h (4 Bft) 97,83 %
06.11.2022 10:18 10,1 C 10,0 C 6,7 C 88 % 1013,3 hPa 0,0 l/m 0 min 0 min 136 W/m 19,3 km/h (3 Bft) 95,74 %
06.11.2022 10:20 10,1 C 10,6 C 6,7 C 88 % 1013,3 hPa 0,0 l/m 0 min 0 min 146 W/m 12,9 km/h (3 Bft) 95,74 %
06.11.2022 10:22 10,1 C 10,6 C 6,7 C 88 % 1013,3 hPa 0,0 l/m 0 min 0 min 153 W/m 19,3 km/h (3 Bft) 95,74 %
06.11.2022 10:24 10,2 C 10,6 C 6,7 C 88 % 1013,3 hPa 0,0 l/m 2 min 0 min 161 W/m 22,5 km/h (4 Bft) 91,49 %
06.11.2022 10:27 10,3 C 11,1 C 6,7 C 88 % 1013,2 hPa 0,0 l/m 3 min 0 min 192 W/m 16,1 km/h (3 Bft) 95,12 %
06.11.2022 10:28 10,3 C 11,7 C 6,7 C 88 % 1013,2 hPa 0,0 l/m 1 min 0 min 181 W/m 16,1 km/h (3 Bft) 100,00 %
06.11.2022 10:30 10,4 C 12,2 C 7,2 C 87 % 1013,2 hPa 0,0 l/m 2 min 0 min 238 W/m 16,1 km/h (3 Bft) 93,62 %
06.11.2022 10:32 10,5 C 13,3 C 7,2 C 87 % 1013,1 hPa 0,0 l/m 2 min 0 min 368 W/m 9,7 km/h (2 Bft) 95,74 %
06.11.2022 10:35 10,7 C 14,4 C 7,2 C 87 % 1013,0 hPa 0,0 l/m 3 min 0 min 347 W/m 16,1 km/h (3 Bft) 95,12 %
06.11.2022 10:36 10,8 C 13,9 C 7,2 C 87 % 1013,0 hPa 0,0 l/m 1 min 0 min 436 W/m 19,3 km/h (3 Bft) 100,00 %
06.11.2022 10:38 10,8 C 12,8 C 7,2 C 87 % 1013,0 hPa 0,0 l/m 2 min 0 min 203 W/m 19,3 km/h (3 Bft) 97,87 %
06.11.2022 10:40 10,9 C 12,2 C 7,2 C 87 % 1012,9 hPa 0,0 l/m 0 min 0 min 138 W/m 12,9 km/h (3 Bft) 97,83 %
06.11.2022 10:42 10,9 C 11,7 C 7,2 C 86 % 1013,0 hPa 0,0 l/m 0 min 0 min 129 W/m 22,5 km/h (4 Bft) 95,74 %
06.11.2022 10:44 11,0 C 11,1 C 7,2 C 86 % 1012,9 hPa 0,0 l/m 0 min 0 min 125 W/m 19,3 km/h (3 Bft) 95,74 %
06.11.2022 10:46 11,0 C 11,1 C 7,2 C 86 % 1013,0 hPa 0,0 l/m 0 min 0 min 127 W/m 22,5 km/h (4 Bft) 97,87 %
06.11.2022 10:48 11,0 C 10,6 C 7,2 C 86 % 1012,9 hPa 0,0 l/m 0 min 0 min 134 W/m 19,3 km/h (3 Bft) 95,74 %
06.11.2022 10:50 11,0 C 11,1 C 7,2 C 86 % 1012,9 hPa 0,0 l/m 0 min 0 min 144 W/m 22,5 km/h (4 Bft) 97,83 %
06.11.2022 10:52 11,0 C 11,1 C 7,2 C 86 % 1012,9 hPa 0,0 l/m 0 min 0 min 150 W/m 16,1 km/h (3 Bft) 95,74 %
06.11.2022 10:54 11,0 C 11,1 C 7,2 C 86 % 1012,8 hPa 0,0 l/m 0 min 0 min 155 W/m 22,5 km/h (4 Bft) 97,87 %
06.11.2022 10:56 11,0 C 11,1 C 7,2 C 86 % 1012,9 hPa 0,0 l/m 0 min 0 min 160 W/m 16,1 km/h (3 Bft) 100,00 %
06.11.2022 10:58 11,1 C 11,1 C 7,2 C 86 % 1012,9 hPa 0,0 l/m 0 min 0 min 170 W/m 22,5 km/h (4 Bft) 100,00 %
06.11.2022 11:00 11,1 C 11,1 C 7,2 C 85 % 1012,8 hPa 0,0 l/m 2 min 0 min 180 W/m 22,5 km/h (4 Bft) 100,00 %
06.11.2022 11:02 11,1 C 11,1 C 7,2 C 85 % 1012,8 hPa 0,0 l/m 2 min 0 min 196 W/m 16,1 km/h (3 Bft) 93,48 %
06.11.2022 11:04 11,1 C 11,7 C 7,2 C 85 % 1012,8 hPa 0,0 l/m 2 min 0 min 196 W/m 22,5 km/h (4 Bft) 100,00 %
06.11.2022 11:06 11,2 C 11,7 C 7,8 C 85 % 1012,7 hPa 0,0 l/m 2 min 0 min 194 W/m 19,3 km/h (3 Bft) 100,00 %
06.11.2022 11:08 11,2 C 11,7 C 7,8 C 85 % 1012,7 hPa 0,0 l/m 2 min 0 min 185 W/m 22,5 km/h (4 Bft) 100,00 %
06.11.2022 11:10 11,2 C 11,7 C 7,8 C 85 % 1012,7 hPa 0,0 l/m 0 min 0 min 177 W/m 19,3 km/h (3 Bft) 97,87 %
06.11.2022 11:12 11,3 C 11,7 C 7,8 C 84 % 1012,7 hPa 0,0 l/m 0 min 0 min 174 W/m 22,5 km/h (4 Bft) 97,87 %
06.11.2022 11:14 11,3 C 11,7 C 7,8 C 84 % 1012,6 hPa 0,0 l/m 0 min 0 min 179 W/m 25,7 km/h (4 Bft) 100,00 %
06.11.2022 11:16 11,3 C 11,7 C 7,8 C 84 % 1012,6 hPa 0,0 l/m 0 min 0 min 178 W/m 22,5 km/h (4 Bft) 100,00 %
06.11.2022 11:18 11,3 C 11,7 C 7,8 C 84 % 1012,6 hPa 0,0 l/m 0 min 0 min 174 W/m 29,0 km/h (5 Bft) 100,00 %
06.11.2022 11:20 11,3 C 11,7 C 7,8 C 84 % 1012,6 hPa 0,0 l/m 0 min 0 min 165 W/m 16,1 km/h (3 Bft) 95,74 %
06.11.2022 11:22 11,3 C 11,7 C 7,8 C 84 % 1012,5 hPa 0,0 l/m 0 min 0 min 158 W/m 19,3 km/h (3 Bft) 100,00 %
06.11.2022 11:24 11,3 C 11,1 C 7,8 C 84 % 1012,5 hPa 0,0 l/m 0 min 0 min 153 W/m 22,5 km/h (4 Bft) 95,74 %
06.11.2022 11:26 11,3 C 11,1 C 7,8 C 84 % 1012,5 hPa 0,0 l/m 0 min 0 min 151 W/m 22,5 km/h (4 Bft) 97,83 %
06.11.2022 11:28 11,3 C 11,1 C 7,8 C 84 % 1012,5 hPa 0,0 l/m 0 min 0 min 151 W/m 16,1 km/h (3 Bft) 97,87 %
06.11.2022 11:30 11,3 C 11,1 C 7,8 C 84 % 1012,5 hPa 0,0 l/m 0 min 0 min 151 W/m 22,5 km/h (4 Bft) 97,87 %
06.11.2022 11:32 11,3 C 11,1 C 7,8 C 84 % 1012,5 hPa 0,0 l/m 0 min 0 min 154 W/m 19,3 km/h (3 Bft) 97,87 %
06.11.2022 11:34 11,3 C 11,1 C 7,8 C 84 % 1012,4 hPa 0,0 l/m 0 min 0 min 156 W/m 16,1 km/h (3 Bft) 97,87 %
06.11.2022 11:36 11,3 C 11,1 C 7,8 C 84 % 1012,4 hPa 0,0 l/m 0 min 0 min 158 W/m 22,5 km/h (4 Bft) 95,65 %
06.11.2022 11:38 11,3 C 11,1 C 7,8 C 84 % 1012,4 hPa 0,0 l/m 0 min 0 min 158 W/m 22,5 km/h (4 Bft) 97,87 %
06.11.2022 11:40 11,3 C 11,1 C 7,8 C 84 % 1012,3 hPa 0,0 l/m 0 min 0 min 157 W/m 16,1 km/h (3 Bft) 97,87 %
06.11.2022 11:43 11,3 C 11,1 C 7,8 C 84 % 1012,3 hPa 0,0 l/m 0 min 0 min 159 W/m 25,7 km/h (4 Bft) 97,14 %
06.11.2022 11:44 11,3 C 11,1 C 7,8 C 83 % 1012,3 hPa 0,0 l/m 0 min 0 min 163 W/m 16,1 km/h (3 Bft) 100,00 %
06.11.2022 11:46 11,4 C 11,1 C 7,8 C 83 % 1012,3 hPa 0,0 l/m 0 min 0 min 164 W/m 25,7 km/h (4 Bft) 97,87 %
06.11.2022 11:49 11,4 C 11,7 C 7,8 C 83 % 1012,2 hPa 0,0 l/m 0 min 0 min 171 W/m 16,1 km/h (3 Bft) 97,14 %
06.11.2022 11:50 11,4 C 11,7 C 7,8 C 83 % 1012,2 hPa 0,0 l/m 0 min 0 min 172 W/m 22,5 km/h (4 Bft) 100,00 %
06.11.2022 11:52 11,4 C 11,7 C 7,8 C 83 % 1012,2 hPa 0,0 l/m 0 min 0 min 166 W/m 25,7 km/h (4 Bft) 93,62 %
06.11.2022 11:54 11,5 C 11,7 C 7,8 C 83 % 1012,2 hPa 0,0 l/m 0 min 0 min 159 W/m 16,1 km/h (3 Bft) 97,87 %
06.11.2022 11:57 11,5 C 11,7 C 7,8 C 83 % 1012,1 hPa 0,0 l/m 0 min 0 min 154 W/m 19,3 km/h (3 Bft) 98,57 %
06.11.2022 11:58 11,6 C 11,7 C 7,8 C 83 % 1012,1 hPa 0,0 l/m 0 min 0 min 155 W/m 16,1 km/h (3 Bft) 95,83 %
06.11.2022 12:00 11,6 C 11,7 C 7,8 C 83 % 1012,1 hPa 0,0 l/m 0 min 0 min 154 W/m 19,3 km/h (3 Bft) 97,83 %
06.11.2022 12:03 11,6 C 11,7 C 7,8 C 83 % 1012,0 hPa 0,0 l/m 0 min 0 min 148 W/m 19,3 km/h (3 Bft) 98,59 %
06.11.2022 12:04 11,6 C 11,7 C 7,8 C 83 % 1012,0 hPa 0,0 l/m 0 min 0 min 144 W/m 16,1 km/h (3 Bft) 98,59 %
06.11.2022 12:06 11,6 C 11,7 C 7,8 C 83 % 1012,0 hPa 0,0 l/m 0 min 0 min 148 W/m 25,7 km/h (4 Bft) 98,59 %
06.11.2022 12:10 11,6 C 11,7 C 7,8 C 83 % 1011,8 hPa 0,0 l/m 0 min 0 min 147 W/m 25,7 km/h (4 Bft) 95,95 %
06.11.2022 12:12 11,7 C 11,7 C 7,8 C 83 % 1011,8 hPa 0,0 l/m 0 min 0 min 152 W/m 12,9 km/h (3 Bft) 95,74 %
06.11.2022 12:14 11,7 C 11,7 C 7,8 C 83 % 1011,8 hPa 0,0 l/m 0 min 0 min 156 W/m 16,1 km/h (3 Bft) 95,74 %
06.11.2022 12:16 11,7 C 11,7 C 7,8 C 83 % 1011,8 hPa 0,0 l/m 0 min 0 min 162 W/m 22,5 km/h (4 Bft) 93,62 %
06.11.2022 12:18 11,7 C 11,7 C 7,8 C 83 % 1011,7 hPa 0,0 l/m 0 min 0 min 171 W/m 16,1 km/h (3 Bft) 97,87 %
06.11.2022 12:20 11,7 C 11,7 C 7,8 C 83 % 1011,8 hPa 0,0 l/m 0 min 0 min 183 W/m 22,5 km/h (4 Bft) 95,65 %
06.11.2022 12:22 11,8 C 11,7 C 7,8 C 83 % 1011,7 hPa 0,0 l/m 0 min 0 min 185 W/m 19,3 km/h (3 Bft) 100,00 %
06.11.2022 12:24 11,8 C 11,7 C 7,8 C 83 % 1011,6 hPa 0,0 l/m 0 min 0 min 176 W/m 22,5 km/h (4 Bft) 100,00 %
06.11.2022 12:26 11,8 C 11,7 C 7,8 C 82 % 1011,6 hPa 0,0 l/m 0 min 0 min 160 W/m 25,7 km/h (4 Bft) 97,87 %
06.11.2022 12:28 11,8 C 11,7 C 7,8 C 82 % 1011,5 hPa 0,0 l/m 0 min 0 min 154 W/m 29,0 km/h (5 Bft) 97,87 %
06.11.2022 12:30 11,8 C 11,7 C 7,8 C 81 % 1011,5 hPa 0,0 l/m 0 min 0 min 157 W/m 19,3 km/h (3 Bft) 95,74 %
06.11.2022 12:32 11,9 C 11,7 C 7,8 C 80 % 1011,5 hPa 0,0 l/m 0 min 0 min 165 W/m 19,3 km/h (3 Bft) 95,65 %
06.11.2022 12:34 11,9 C 11,7 C 7,8 C 80 % 1011,4 hPa 0,0 l/m 0 min 0 min 171 W/m 22,5 km/h (4 Bft) 95,74 %
06.11.2022 12:36 11,9 C 11,7 C 7,8 C 80 % 1011,4 hPa 0,0 l/m 0 min 0 min 177 W/m 25,7 km/h (4 Bft) 95,74 %
06.11.2022 12:38 11,9 C 12,2 C 7,8 C 80 % 1011,4 hPa 0,0 l/m 0 min 0 min 191 W/m 19,3 km/h (3 Bft) 93,62 %
06.11.2022 12:40 12,0 C 12,2 C 8,3 C 80 % 1011,3 hPa 0,0 l/m 2 min 0 min 209 W/m 22,5 km/h (4 Bft) 95,74 %
06.11.2022 12:42 12,0 C 12,2 C 8,3 C 79 % 1011,2 hPa 0,0 l/m 2 min 0 min 224 W/m 29,0 km/h (5 Bft) 95,74 %
06.11.2022 12:44 12,1 C 12,2 C 8,3 C 78 % 1011,2 hPa 0,0 l/m 2 min 0 min 222 W/m 22,5 km/h (4 Bft) 95,65 %
06.11.2022 12:46 12,1 C 12,2 C 8,3 C 78 % 1011,2 hPa 0,0 l/m 2 min 0 min 207 W/m 35,4 km/h (5 Bft) 95,74 %
06.11.2022 12:48 12,1 C 12,2 C 8,3 C 78 % 1011,1 hPa 0,0 l/m 2 min 0 min 199 W/m 29,0 km/h (5 Bft) 93,62 %
06.11.2022 12:50 12,1 C 12,2 C 8,3 C 78 % 1011,1 hPa 0,0 l/m 2 min 0 min 206 W/m 22,5 km/h (4 Bft) 93,62 %
06.11.2022 12:52 12,1 C 12,2 C 8,3 C 78 % 1010,9 hPa 0,0 l/m 2 min 0 min 210 W/m 16,1 km/h (3 Bft) 95,74 %
06.11.2022 12:54 12,1 C 12,8 C 8,3 C 78 % 1010,8 hPa 0,0 l/m 2 min 0 min 219 W/m 19,3 km/h (3 Bft) 95,74 %
06.11.2022 12:57 12,2 C 12,8 C 8,3 C 77 % 1010,8 hPa 0,0 l/m 3 min 0 min 273 W/m 25,7 km/h (4 Bft) 95,71 %
06.11.2022 12:58 12,3 C 12,8 C 8,3 C 77 % 1010,8 hPa 0,0 l/m 1 min 0 min 238 W/m 16,1 km/h (3 Bft) 91,30 %
06.11.2022 13:00 12,3 C 12,8 C 8,3 C 78 % 1010,7 hPa 0,0 l/m 2 min 0 min 209 W/m 22,5 km/h (4 Bft) 97,87 %
06.11.2022 13:02 12,3 C 12,8 C 8,3 C 78 % 1010,7 hPa 0,0 l/m 0 min 0 min 183 W/m 22,5 km/h (4 Bft) 97,87 %
06.11.2022 13:04 12,3 C 12,2 C 8,3 C 78 % 1010,6 hPa 0,0 l/m 0 min 0 min 172 W/m 22,5 km/h (4 Bft) 97,87 %
06.11.2022 13:06 12,3 C 12,2 C 8,3 C 78 % 1010,6 hPa 0,0 l/m 0 min 0 min 153 W/m 12,9 km/h (3 Bft) 97,87 %
06.11.2022 13:08 12,3 C 12,2 C 8,3 C 78 % 1010,5 hPa 0,0 l/m 0 min 0 min 136 W/m 22,5 km/h (4 Bft) 97,83 %
06.11.2022 13:11 12,2 C 11,7 C 7,8 C 78 % 1010,5 hPa 0,0 l/m 0 min 0 min 139 W/m 25,7 km/h (4 Bft) 94,37 %
06.11.2022 13:12 12,2 C 11,7 C 7,8 C 78 % 1010,5 hPa 0,0 l/m 0 min 0 min 120 W/m 19,3 km/h (3 Bft) 95,65 %
06.11.2022 13:14 12,1 C 11,7 C 7,8 C 79 % 1010,5 hPa 0,0 l/m 0 min 0 min 112 W/m 22,5 km/h (4 Bft) 97,87 %
06.11.2022 13:16 12,1 C 11,7 C 7,8 C 79 % 1010,5 hPa 0,0 l/m 0 min 0 min 110 W/m 25,7 km/h (4 Bft) 100,00 %
06.11.2022 13:18 12,0 C 11,7 C 7,8 C 79 % 1010,4 hPa 0,0 l/m 0 min 0 min 111 W/m 22,5 km/h (4 Bft) 100,00 %
06.11.2022 13:20 11,9 C 11,7 C 7,8 C 79 % 1010,5 hPa 0,0 l/m 0 min 0 min 124 W/m 29,0 km/h (5 Bft) 100,00 %
06.11.2022 13:22 11,9 C 11,7 C 7,8 C 80 % 1010,4 hPa 0,0 l/m 0 min 0 min 137 W/m 19,3 km/h (3 Bft) 97,87 %
06.11.2022 13:24 11,8 C 11,1 C 7,8 C 80 % 1010,4 hPa 0,0 l/m 0 min 0 min 129 W/m 29,0 km/h (5 Bft) 97,87 %
06.11.2022 13:26 11,8 C 11,7 C 7,8 C 80 % 1010,3 hPa 0,0 l/m 0 min 0 min 136 W/m 25,7 km/h (4 Bft) 97,87 %
06.11.2022 13:28 11,8 C 11,1 C 7,8 C 80 % 1010,4 hPa 0,0 l/m 0 min 0 min 140 W/m 16,1 km/h (3 Bft) 100,00 %
06.11.2022 13:30 11,7 C 11,1 C 7,8 C 80 % 1010,3 hPa 0,0 l/m 0 min 0 min 116 W/m 16,1 km/h (3 Bft) 100,00 %
06.11.2022 13:32 11,7 C 11,1 C 7,8 C 80 % 1010,2 hPa 0,0 l/m 0 min 0 min 101 W/m 25,7 km/h (4 Bft) 97,83 %
06.11.2022 13:34 11,7 C 11,1 C 7,8 C 80 % 1010,2 hPa 0,0 l/m 0 min 0 min 106 W/m 19,3 km/h (3 Bft) 100,00 %
06.11.2022 13:36 11,7 C 11,1 C 7,8 C 81 % 1010,1 hPa 0,0 l/m 0 min 0 min 118 W/m 16,1 km/h (3 Bft) 100,00 %
06.11.2022 13:38 11,7 C 11,1 C 7,8 C 81 % 1009,9 hPa 0,0 l/m 0 min 0 min 114 W/m 16,1 km/h (3 Bft) 100,00 %
06.11.2022 13:40 11,6 C 11,1 C 7,8 C 81 % 1010,0 hPa 0,0 l/m 0 min 0 min 101 W/m 16,1 km/h (3 Bft) 100,00 %
06.11.2022 13:42 11,6 C 11,1 C 7,8 C 81 % 1010,0 hPa 0,0 l/m 0 min 0 min 96 W/m 22,5 km/h (4 Bft) 100,00 %
06.11.2022 13:44 11,6 C 11,1 C 7,2 C 81 % 1010,0 hPa 0,0 l/m 0 min 0 min 100 W/m 25,7 km/h (4 Bft) 100,00 %
06.11.2022 13:46 11,6 C 11,1 C 7,2 C 81 % 1009,9 hPa 0,0 l/m 0 min 0 min 105 W/m 25,7 km/h (4 Bft) 100,00 %
06.11.2022 13:48 11,6 C 11,1 C 7,2 C 81 % 1009,8 hPa 0,0 l/m 0 min 0 min 110 W/m 38,6 km/h (5 Bft) 100,00 %
06.11.2022 13:50 11,5 C 11,1 C 7,2 C 81 % 1009,8 hPa 0,0 l/m 0 min 0 min 112 W/m 16,1 km/h (3 Bft) 100,00 %
06.11.2022 13:52 11,5 C 11,1 C 7,2 C 81 % 1009,9 hPa 0,0 l/m 0 min 0 min 115 W/m 22,5 km/h (4 Bft) 97,87 %
06.11.2022 13:54 11,5 C 11,1 C 7,2 C 80 % 1010,0 hPa 0,0 l/m 0 min 0 min 132 W/m 41,8 km/h (6 Bft) 100,00 %
06.11.2022 13:56 11,5 C 11,1 C 7,2 C 80 % 1010,0 hPa 0,0 l/m 2 min 0 min 239 W/m 22,5 km/h (4 Bft) 97,22 %
06.11.2022 13:58 11,6 C 11,7 C 7,8 C 81 % 1009,9 hPa 0,0 l/m 2 min 0 min 266 W/m 22,5 km/h (4 Bft) 100,00 %
06.11.2022 14:00 11,6 C 11,7 C 7,8 C 81 % 1010,0 hPa 0,0 l/m 2 min 0 min 226 W/m 19,3 km/h (3 Bft) 100,00 %
06.11.2022 14:02 11,6 C 12,2 C 7,8 C 81 % 1009,9 hPa 0,0 l/m 2 min 0 min 216 W/m 22,5 km/h (4 Bft) 100,00 %
06.11.2022 14:04 11,7 C 12,2 C 7,8 C 81 % 1010,0 hPa 0,0 l/m 2 min 0 min 236 W/m 19,3 km/h (3 Bft) 100,00 %
06.11.2022 14:07 11,7 C 11,7 C 7,8 C 80 % 1009,9 hPa 0,0 l/m 3 min 0 min 193 W/m 19,3 km/h (3 Bft) 97,14 %
06.11.2022 14:08 11,8 C 11,7 C 7,8 C 80 % 1009,9 hPa 0,0 l/m 0 min 0 min 149 W/m 19,3 km/h (3 Bft) 100,00 %
06.11.2022 14:10 11,8 C 11,7 C 7,8 C 80 % 1009,9 hPa 0,0 l/m 0 min 0 min 134 W/m 19,3 km/h (3 Bft) 100,00 %
06.11.2022 14:13 11,8 C 11,7 C 7,8 C 80 % 1009,7 hPa 0,0 l/m 0 min 0 min 130 W/m 22,5 km/h (4 Bft) 97,18 %
06.11.2022 14:14 11,8 C 11,7 C 7,8 C 80 % 1009,7 hPa 0,0 l/m 0 min 0 min 131 W/m 16,1 km/h (3 Bft) 100,00 %
06.11.2022 14:16 11,8 C 11,7 C 7,8 C 80 % 1009,7 hPa 0,0 l/m 0 min 0 min 129 W/m 12,9 km/h (3 Bft) 97,87 %
06.11.2022 14:18 11,8 C 11,7 C 7,8 C 80 % 1009,7 hPa 0,0 l/m 0 min 0 min 123 W/m 22,5 km/h (4 Bft) 100,00 %
06.11.2022 14:20 11,8 C 11,7 C 7,8 C 80 % 1009,7 hPa 0,0 l/m 0 min 0 min 117 W/m 22,5 km/h (4 Bft) 100,00 %
06.11.2022 14:22 11,8 C 11,1 C 7,8 C 80 % 1009,7 hPa 0,0 l/m 0 min 0 min 107 W/m 22,5 km/h (4 Bft) 100,00 %
06.11.2022 14:24 11,8 C 11,1 C 7,8 C 81 % 1009,7 hPa 0,0 l/m 0 min 0 min 93 W/m 12,9 km/h (3 Bft) 97,87 %
06.11.2022 14:26 11,8 C 11,1 C 7,8 C 81 % 1009,7 hPa 0,0 l/m 0 min 0 min 83 W/m 19,3 km/h (3 Bft) 95,74 %
06.11.2022 14:28 11,7 C 11,1 C 7,8 C 81 % 1009,8 hPa 0,0 l/m 0 min 0 min 76 W/m 19,3 km/h (3 Bft) 97,87 %
06.11.2022 14:30 11,7 C 11,1 C 7,8 C 81 % 1009,8 hPa 0,0 l/m 0 min 0 min 74 W/m 19,3 km/h (3 Bft) 95,74 %
06.11.2022 14:32 11,7 C 11,1 C 7,8 C 81 % 1009,8 hPa 0,0 l/m 0 min 0 min 77 W/m 19,3 km/h (3 Bft) 95,65 %
06.11.2022 14:34 11,7 C 11,1 C 7,8 C 81 % 1009,8 hPa 0,0 l/m 0 min 0 min 81 W/m 16,1 km/h (3 Bft) 95,74 %
06.11.2022 14:36 11,7 C 11,1 C 7,8 C 81 % 1009,7 hPa 0,0 l/m 0 min 0 min 83 W/m 19,3 km/h (3 Bft) 95,74 %
06.11.2022 14:38 11,7 C 11,1 C 7,8 C 81 % 1009,7 hPa 0,0 l/m 0 min 0 min 85 W/m 19,3 km/h (3 Bft) 94,34 %
06.11.2022 14:40 11,7 C 11,1 C 7,8 C 81 % 1009,7 hPa 0,0 l/m 0 min 0 min 86 W/m 16,1 km/h (3 Bft) 95,74 %
06.11.2022 14:42 11,7 C 11,1 C 7,8 C 81 % 1009,7 hPa 0,0 l/m 0 min 0 min 87 W/m 16,1 km/h (3 Bft) 95,65 %
06.11.2022 14:44 11,7 C 11,1 C 7,8 C 81 % 1009,7 hPa 0,0 l/m 0 min 0 min 86 W/m 19,3 km/h (3 Bft) 95,74 %
06.11.2022 14:46 11,7 C 11,1 C 7,8 C 81 % 1009,7 hPa 0,0 l/m 0 min 0 min 86 W/m 22,5 km/h (4 Bft) 92,68 %
06.11.2022 14:49 11,8 C 11,7 C 7,8 C 81 % 1009,5 hPa 0,0 l/m 0 min 0 min 88 W/m 38,6 km/h (5 Bft) 95,71 %
06.11.2022 14:50 11,8 C 11,7 C 7,8 C 81 % 1009,5 hPa 0,0 l/m 0 min 0 min 84 W/m 12,9 km/h (3 Bft) 100,00 %
06.11.2022 14:52 11,8 C 11,7 C 7,8 C 81 % 1009,5 hPa 0,0 l/m 0 min 0 min 82 W/m 22,5 km/h (4 Bft) 95,74 %
06.11.2022 14:54 11,8 C 11,7 C 7,8 C 81 % 1009,5 hPa 0,0 l/m 0 min 0 min 81 W/m 19,3 km/h (3 Bft) 95,74 %
06.11.2022 14:56 11,8 C 11,7 C 7,8 C 80 % 1009,4 hPa 0,0 l/m 0 min 0 min 80 W/m 16,1 km/h (3 Bft) 93,48 %
06.11.2022 14:58 11,8 C 11,7 C 7,8 C 80 % 1009,4 hPa 0,0 l/m 0 min 0 min 75 W/m 16,1 km/h (3 Bft) 95,74 %
06.11.2022 15:00 11,8 C 11,7 C 7,8 C 80 % 1009,4 hPa 0,0 l/m 0 min 0 min 72 W/m 16,1 km/h (3 Bft) 97,87 %
06.11.2022 15:02 11,8 C 11,7 C 7,8 C 80 % 1009,4 hPa 0,0 l/m 0 min 0 min 74 W/m 22,5 km/h (4 Bft) 95,74 %
06.11.2022 15:04 11,8 C 11,7 C 7,8 C 80 % 1009,4 hPa 0,0 l/m 0 min 0 min 73 W/m 12,9 km/h (3 Bft) 95,83 %
06.11.2022 15:06 11,8 C 11,7 C 7,8 C 80 % 1009,5 hPa 0,0 l/m 0 min 0 min 69 W/m 12,9 km/h (3 Bft) 95,65 %
06.11.2022 15:08 11,8 C 11,7 C 7,8 C 80 % 1009,5 hPa 0,0 l/m 0 min 0 min 64 W/m 16,1 km/h (3 Bft) 93,62 %
06.11.2022 15:10 11,8 C 11,7 C 7,8 C 80 % 1009,4 hPa 0,0 l/m 0 min 0 min 62 W/m 12,9 km/h (3 Bft) 95,74 %
06.11.2022 15:12 11,8 C 11,7 C 7,8 C 80 % 1009,4 hPa 0,0 l/m 0 min 0 min 57 W/m 16,1 km/h (3 Bft) 95,74 %
06.11.2022 15:14 11,9 C 11,7 C 7,8 C 79 % 1009,5 hPa 0,0 l/m 0 min 0 min 54 W/m 12,9 km/h (3 Bft) 95,74 %
06.11.2022 15:16 11,9 C 11,7 C 7,8 C 79 % 1009,5 hPa 0,0 l/m 0 min 0 min 50 W/m 12,9 km/h (3 Bft) 97,87 %
06.11.2022 15:19 11,9 C 11,7 C 7,8 C 78 % 1009,4 hPa 0,0 l/m 0 min 0 min 46 W/m 16,1 km/h (3 Bft) 97,14 %
06.11.2022 15:20 11,9 C 11,7 C 7,8 C 78 % 1009,5 hPa 0,0 l/m 0 min 0 min 42 W/m 9,7 km/h (2 Bft) 95,65 %
06.11.2022 15:22 11,9 C 11,7 C 7,8 C 78 % 1009,5 hPa 0,0 l/m 0 min 0 min 38 W/m 9,7 km/h (2 Bft) 97,87 %
06.11.2022 15:25 11,9 C 11,7 C 7,8 C 78 % 1009,5 hPa 0,0 l/m 0 min 0 min 34 W/m 12,9 km/h (3 Bft) 97,14 %
06.11.2022 15:26 11,9 C 11,7 C 7,2 C 78 % 1009,5 hPa 0,0 l/m 0 min 0 min 35 W/m 12,9 km/h (3 Bft) 95,83 %
06.11.2022 15:28 11,9 C 11,7 C 7,2 C 77 % 1009,5 hPa 0,0 l/m 0 min 0 min 35 W/m 6,4 km/h (2 Bft) 97,87 %
06.11.2022 15:30 11,9 C 11,1 C 7,2 C 77 % 1009,5 hPa 0,0 l/m 0 min 2 min 34 W/m 12,9 km/h (3 Bft) 97,83 %
06.11.2022 15:33 11,9 C 11,1 C 7,8 C 77 % 1009,5 hPa 0,0 l/m 0 min 0 min 30 W/m 16,1 km/h (3 Bft) 97,18 %
06.11.2022 15:34 11,9 C 11,1 C 7,8 C 77 % 1009,5 hPa 0,0 l/m 0 min 0 min 26 W/m 9,7 km/h (2 Bft) 91,30 %
06.11.2022 15:36 11,9 C 11,1 C 7,8 C 77 % 1009,5 hPa 0,0 l/m 0 min 0 min 25 W/m 22,5 km/h (4 Bft) 97,87 %
06.11.2022 15:38 11,9 C 11,1 C 7,8 C 77 % 1009,5 hPa 0,0 l/m 0 min 0 min 23 W/m 16,1 km/h (3 Bft) 95,74 %
06.11.2022 15:40 11,9 C 11,1 C 7,2 C 77 % 1009,5 hPa 0,0 l/m 0 min 0 min 25 W/m 12,9 km/h (3 Bft) 95,74 %
06.11.2022 15:42 11,9 C 11,1 C 7,2 C 77 % 1009,4 hPa 0,0 l/m 0 min 0 min 23 W/m 12,9 km/h (3 Bft) 97,83 %
06.11.2022 15:45 11,8 C 11,1 C 7,2 C 77 % 1009,4 hPa 0,0 l/m 0 min 0 min 21 W/m 16,1 km/h (3 Bft) 97,18 %
06.11.2022 15:46 11,8 C 11,1 C 7,2 C 77 % 1009,4 hPa 0,0 l/m 0 min 0 min 21 W/m 12,9 km/h (3 Bft) 100,00 %
06.11.2022 15:50 11,8 C 11,1 C 7,2 C 77 % 1009,4 hPa 0,0 l/m 0 min 4 min 19 W/m 6,4 km/h (2 Bft) 100,00 %
06.11.2022 15:52 11,8 C 11,1 C 6,7 C 77 % 1009,4 hPa 0,0 l/m 0 min 0 min 18 W/m 12,9 km/h (3 Bft) 91,49 %
06.11.2022 15:54 11,8 C 11,1 C 6,7 C 77 % 1009,3 hPa 0,0 l/m 0 min 2 min 16 W/m 12,9 km/h (3 Bft) 95,65 %
06.11.2022 15:56 11,7 C 10,6 C 6,7 C 78 % 1009,4 hPa 0,0 l/m 0 min 2 min 14 W/m 9,7 km/h (2 Bft) 97,87 %
06.11.2022 15:58 11,7 C 10,6 C 6,7 C 78 % 1009,3 hPa 0,0 l/m 0 min 2 min 12 W/m 12,9 km/h (3 Bft) 100,00 %
06.11.2022 16:00 11,7 C 10,6 C 6,1 C 78 % 1009,4 hPa 0,0 l/m 0 min 2 min 12 W/m 12,9 km/h (3 Bft) 100,00 %
06.11.2022 16:02 11,6 C 10,6 C 6,1 C 78 % 1009,3 hPa 0,0 l/m 0 min 0 min 12 W/m 6,4 km/h (2 Bft) 100,00 %
06.11.2022 16:04 11,6 C 10,6 C 6,1 C 78 % 1009,3 hPa 0,0 l/m 0 min 0 min 11 W/m 16,1 km/h (3 Bft) 100,00 %
06.11.2022 16:06 11,6 C 10,6 C 6,1 C 78 % 1009,3 hPa 0,0 l/m 0 min 2 min 11 W/m 6,4 km/h (2 Bft) 96,61 %
06.11.2022 16:08 11,5 C 10,6 C 6,1 C 78 % 1009,4 hPa 0,0 l/m 0 min 2 min 11 W/m 12,9 km/h (3 Bft) 100,00 %
06.11.2022 16:10 11,4 C 10,6 C 6,1 C 78 % 1009,4 hPa 0,0 l/m 0 min 2 min 10 W/m 12,9 km/h (3 Bft) 100,00 %
06.11.2022 16:12 11,4 C 10,6 C 5,6 C 79 % 1009,4 hPa 0,0 l/m 0 min 2 min 9 W/m 19,3 km/h (3 Bft) 97,87 %
06.11.2022 16:14 11,3 C 10,6 C 5,6 C 79 % 1009,5 hPa 0,0 l/m 0 min 2 min 7 W/m 12,9 km/h (3 Bft) 100,00 %
06.11.2022 16:16 11,3 C 10,0 C 5,6 C 79 % 1009,5 hPa 0,0 l/m 0 min 2 min 5 W/m 6,4 km/h (2 Bft) 100,00 %
06.11.2022 16:18 11,2 C 10,0 C 5,0 C 80 % 1009,5 hPa 0,0 l/m 0 min 2 min 5 W/m 12,9 km/h (3 Bft) 100,00 %
06.11.2022 16:20 11,2 C 10,0 C 5,0 C 81 % 1009,5 hPa 0,2 l/m 0 min 2 min 5 W/m 12,9 km/h (3 Bft) 100,00 %
06.11.2022 16:22 11,1 C 10,0 C 5,0 C 81 % 1009,6 hPa 0,0 l/m 0 min 2 min 5 W/m 19,3 km/h (3 Bft) 97,87 %
06.11.2022 16:24 11,1 C 9,4 C 5,0 C 82 % 1009,6 hPa 0,0 l/m 0 min 2 min 1 W/m 19,3 km/h (3 Bft) 100,00 %
06.11.2022 16:26 11,0 C 9,4 C 5,0 C 82 % 1009,7 hPa 0,2 l/m 0 min 2 min 0 W/m 16,1 km/h (3 Bft) 95,74 %
06.11.2022 16:28 10,9 C 9,4 C 5,0 C 83 % 1009,8 hPa 0,0 l/m 0 min 2 min 0 W/m 19,3 km/h (3 Bft) 100,00 %
06.11.2022 16:30 10,9 C 9,4 C 5,0 C 83 % 1009,8 hPa 0,0 l/m 0 min 2 min 0 W/m 19,3 km/h (3 Bft) 100,00 %
06.11.2022 16:32 10,8 C 9,4 C 5,0 C 83 % 1009,7 hPa 0,0 l/m 0 min 2 min 0 W/m 16,1 km/h (3 Bft) 95,74 %
06.11.2022 16:34 10,7 C 8,9 C 4,4 C 84 % 1009,6 hPa 0,2 l/m 0 min 2 min 0 W/m 12,9 km/h (3 Bft) 97,87 %
06.11.2022 16:36 10,6 C 8,9 C 4,4 C 84 % 1009,3 hPa 0,0 l/m 0 min 2 min 0 W/m 16,1 km/h (3 Bft) 97,87 %
06.11.2022 16:38 10,6 C 8,9 C 4,4 C 84 % 1009,3 hPa 0,0 l/m 0 min 2 min 0 W/m 9,7 km/h (2 Bft) 93,62 %
06.11.2022 16:40 10,5 C 8,9 C 4,4 C 85 % 1009,4 hPa 0,2 l/m 0 min 2 min 0 W/m 6,4 km/h (2 Bft) 97,83 %
06.11.2022 16:42 10,4 C 8,9 C 4,4 C 85 % 1009,5 hPa 0,0 l/m 0 min 2 min 0 W/m 9,7 km/h (2 Bft) 97,87 %
06.11.2022 16:44 10,4 C 8,9 C 4,4 C 86 % 1009,5 hPa 0,0 l/m 0 min 2 min 0 W/m 6,4 km/h (2 Bft) 97,87 %
06.11.2022 16:46 10,3 C 8,9 C 4,4 C 86 % 1009,3 hPa 0,0 l/m 0 min 2 min 0 W/m 12,9 km/h (3 Bft) 97,87 %
06.11.2022 16:48 10,2 C 8,9 C 4,4 C 86 % 1009,2 hPa 0,0 l/m 0 min 2 min 0 W/m 16,1 km/h (3 Bft) 95,74 %
06.11.2022 16:50 10,1 C 8,9 C 4,4 C 86 % 1009,0 hPa 0,0 l/m 0 min 2 min 0 W/m 16,1 km/h (3 Bft) 97,87 %
06.11.2022 16:52 10,1 C 8,9 C 4,4 C 86 % 1008,8 hPa 0,2 l/m 0 min 2 min 0 W/m 16,1 km/h (3 Bft) 95,65 %
06.11.2022 16:54 10,0 C 8,9 C 4,4 C 86 % 1008,6 hPa 0,0 l/m 0 min 2 min 0 W/m 12,9 km/h (3 Bft) 97,87 %
06.11.2022 16:56 9,9 C 8,3 C 4,4 C 87 % 1008,5 hPa 0,0 l/m 0 min 2 min 0 W/m 9,7 km/h (2 Bft) 97,87 %
06.11.2022 16:58 9,8 C 8,3 C 4,4 C 87 % 1008,5 hPa 0,0 l/m 0 min 2 min 0 W/m 12,9 km/h (3 Bft) 97,87 %
06.11.2022 17:00 9,8 C 8,3 C 3,9 C 87 % 1008,5 hPa 0,0 l/m 0 min 0 min 0 W/m 16,1 km/h (3 Bft) 97,87 %
06.11.2022 17:02 9,7 C 8,3 C 4,4 C 87 % 1008,4 hPa 0,0 l/m 0 min 0 min 0 W/m 19,3 km/h (3 Bft) 95,74 %
06.11.2022 17:04 9,7 C 8,3 C 3,9 C 87 % 1008,4 hPa 0,0 l/m 0 min 0 min 0 W/m 19,3 km/h (3 Bft) 100,00 %
06.11.2022 17:06 9,6 C 8,3 C 4,4 C 87 % 1008,5 hPa 0,0 l/m 0 min 0 min 0 W/m 6,4 km/h (2 Bft) 97,87 %
06.11.2022 17:08 9,6 C 8,3 C 4,4 C 88 % 1008,5 hPa 0,0 l/m 0 min 0 min 0 W/m 19,3 km/h (3 Bft) 97,87 %
06.11.2022 17:10 9,6 C 8,3 C 4,4 C 88 % 1008,5 hPa 0,0 l/m 0 min 0 min 0 W/m 12,9 km/h (3 Bft) 97,87 %
06.11.2022 17:12 9,5 C 8,3 C 4,4 C 88 % 1008,6 hPa 0,0 l/m 0 min 0 min 0 W/m 16,1 km/h (3 Bft) 97,87 %
06.11.2022 17:14 9,5 C 8,3 C 4,4 C 88 % 1008,5 hPa 0,0 l/m 0 min 0 min 0 W/m 9,7 km/h (2 Bft) 97,87 %
06.11.2022 17:16 9,4 C 8,3 C 4,4 C 88 % 1008,5 hPa 0,0 l/m 0 min 0 min 0 W/m 12,9 km/h (3 Bft) 97,83 %
06.11.2022 17:18 9,4 C 8,3 C 3,9 C 88 % 1008,6 hPa 0,0 l/m 0 min 0 min 0 W/m 22,5 km/h (4 Bft) 97,87 %
06.11.2022 17:20 9,4 C 8,3 C 4,4 C 88 % 1008,6 hPa 0,0 l/m 0 min 0 min 0 W/m 6,4 km/h (2 Bft) 97,87 %
06.11.2022 17:22 9,4 C 8,3 C 4,4 C 88 % 1008,6 hPa 0,0 l/m 0 min 0 min 0 W/m 19,3 km/h (3 Bft) 93,62 %
06.11.2022 17:24 9,4 C 8,3 C 4,4 C 88 % 1008,6 hPa 0,0 l/m 0 min 0 min 0 W/m 16,1 km/h (3 Bft) 97,87 %
06.11.2022 17:26 9,3 C 8,3 C 3,9 C 88 % 1008,5 hPa 0,0 l/m 0 min 0 min 0 W/m 25,7 km/h (4 Bft) 97,87 %
06.11.2022 17:28 9,3 C 8,3 C 3,9 C 88 % 1008,4 hPa 0,0 l/m 0 min 0 min 0 W/m 12,9 km/h (3 Bft) 97,83 %
06.11.2022 17:30 9,3 C 8,3 C 4,4 C 88 % 1008,4 hPa 0,0 l/m 0 min 0 min 0 W/m 16,1 km/h (3 Bft) 97,87 %
06.11.2022 17:32 9,3 C 8,3 C 3,9 C 88 % 1008,4 hPa 0,0 l/m 0 min 0 min 0 W/m 22,5 km/h (4 Bft) 95,74 %
06.11.2022 17:34 9,3 C 8,3 C 3,9 C 88 % 1008,4 hPa 0,0 l/m 0 min 0 min 0 W/m 12,9 km/h (3 Bft) 93,62 %
06.11.2022 17:36 9,3 C 8,3 C 3,9 C 88 % 1008,2 hPa 0,0 l/m 0 min 0 min 0 W/m 16,1 km/h (3 Bft) 97,87 %
06.11.2022 17:38 9,3 C 8,3 C 3,9 C 88 % 1008,1 hPa 0,0 l/m 0 min 0 min 0 W/m 16,1 km/h (3 Bft) 97,83 %
06.11.2022 17:40 9,3 C 8,3 C 3,9 C 88 % 1008,3 hPa 0,0 l/m 0 min 0 min 0 W/m 16,1 km/h (3 Bft) 95,74 %
06.11.2022 17:42 9,3 C 8,3 C 3,9 C 88 % 1008,3 hPa 0,0 l/m 0 min 0 min 0 W/m 9,7 km/h (2 Bft) 100,00 %
06.11.2022 17:44 9,3 C 8,3 C 3,9 C 88 % 1008,3 hPa 0,0 l/m 0 min 0 min 0 W/m 19,3 km/h (3 Bft) 100,00 %
06.11.2022 17:46 9,3 C 8,3 C 3,9 C 88 % 1008,3 hPa 0,0 l/m 0 min 0 min 0 W/m 12,9 km/h (3 Bft) 100,00 %
06.11.2022 17:48 9,3 C 8,3 C 3,9 C 88 % 1008,2 hPa 0,0 l/m 0 min 0 min 0 W/m 16,1 km/h (3 Bft) 97,87 %
06.11.2022 17:50 9,3 C 8,3 C 3,9 C 88 % 1008,3 hPa 0,0 l/m 0 min 0 min 0 W/m 16,1 km/h (3 Bft) 97,83 %
06.11.2022 17:52 9,3 C 8,3 C 3,9 C 88 % 1008,3 hPa 0,0 l/m 0 min 0 min 0 W/m 9,7 km/h (2 Bft) 100,00 %
06.11.2022 17:54 9,3 C 8,3 C 3,9 C 88 % 1008,4 hPa 0,0 l/m 0 min 0 min 0 W/m 16,1 km/h (3 Bft) 100,00 %
06.11.2022 17:56 9,3 C 8,3 C 3,9 C 88 % 1008,4 hPa 0,0 l/m 0 min 0 min 0 W/m 16,1 km/h (3 Bft) 100,00 %
06.11.2022 17:58 9,3 C 8,3 C 3,9 C 88 % 1008,3 hPa 0,0 l/m 0 min 0 min 0 W/m 19,3 km/h (3 Bft) 100,00 %
06.11.2022 18:00 9,3 C 8,9 C 3,9 C 88 % 1008,3 hPa 0,0 l/m 0 min 0 min 0 W/m 16,1 km/h (3 Bft) 100,00 %
06.11.2022 18:02 9,3 C 8,9 C 3,9 C 88 % 1008,2 hPa 0,0 l/m 0 min 0 min 0 W/m 19,3 km/h (3 Bft) 97,83 %
06.11.2022 18:04 9,3 C 8,9 C 3,9 C 88 % 1008,2 hPa 0,0 l/m 0 min 0 min 0 W/m 19,3 km/h (3 Bft) 100,00 %
06.11.2022 18:08 9,3 C 8,3 C 3,9 C 88 % 1008,1 hPa 0,0 l/m 0 min 0 min 0 W/m 22,5 km/h (4 Bft) 98,94 %
06.11.2022 18:10 9,3 C 8,3 C 3,9 C 88 % 1008,1 hPa 0,0 l/m 0 min 0 min 0 W/m 16,1 km/h (3 Bft) 95,74 %
06.11.2022 18:12 9,3 C 8,3 C 3,9 C 88 % 1008,0 hPa 0,0 l/m 0 min 0 min 0 W/m 12,9 km/h (3 Bft) 100,00 %
06.11.2022 18:14 9,3 C 8,3 C 3,9 C 88 % 1008,0 hPa 0,0 l/m 0 min 0 min 0 W/m 16,1 km/h (3 Bft) 97,83 %
06.11.2022 18:16 9,3 C 8,9 C 3,9 C 88 % 1008,0 hPa 0,0 l/m 0 min 0 min 0 W/m 16,1 km/h (3 Bft) 95,74 %
06.11.2022 18:18 9,3 C 8,9 C 3,9 C 88 % 1007,9 hPa 0,0 l/m 0 min 0 min 0 W/m 16,1 km/h (3 Bft) 97,87 %
06.11.2022 18:20 9,3 C 8,3 C 3,9 C 88 % 1007,8 hPa 0,0 l/m 0 min 2 min 0 W/m 12,9 km/h (3 Bft) 97,87 %
06.11.2022 18:22 9,3 C 8,3 C 3,9 C 88 % 1007,8 hPa 0,0 l/m 0 min 2 min 0 W/m 16,1 km/h (3 Bft) 95,74 %
06.11.2022 18:24 9,3 C 8,3 C 3,9 C 88 % 1007,8 hPa 0,0 l/m 0 min 2 min 0 W/m 16,1 km/h (3 Bft) 95,65 %
06.11.2022 18:26 9,3 C 8,3 C 3,9 C 88 % 1007,8 hPa 0,0 l/m 0 min 2 min 0 W/m 16,1 km/h (3 Bft) 91,49 %
06.11.2022 18:28 9,3 C 8,3 C 3,9 C 88 % 1007,7 hPa 0,0 l/m 0 min 2 min 0 W/m 12,9 km/h (3 Bft) 93,62 %
06.11.2022 18:30 9,3 C 8,3 C 3,9 C 88 % 1007,7 hPa 0,0 l/m 0 min 0 min 0 W/m 16,1 km/h (3 Bft) 93,62 %
06.11.2022 18:32 9,2 C 8,3 C 3,9 C 88 % 1007,5 hPa 0,0 l/m 0 min 0 min 0 W/m 12,9 km/h (3 Bft) 95,74 %
06.11.2022 18:34 9,2 C 8,3 C 3,9 C 88 % 1007,4 hPa 0,0 l/m 0 min 2 min 0 W/m 16,1 km/h (3 Bft) 95,74 %
06.11.2022 18:36 9,2 C 8,3 C 3,9 C 88 % 1007,3 hPa 0,0 l/m 0 min 2 min 0 W/m 19,3 km/h (3 Bft) 95,65 %
06.11.2022 18:38 9,2 C 8,3 C 3,9 C 88 % 1007,2 hPa 0,0 l/m 0 min 0 min 0 W/m 6,4 km/h (2 Bft) 95,35 %
06.11.2022 18:41 9,1 C 8,3 C 3,9 C 88 % 1007,3 hPa 0,0 l/m 0 min 0 min 0 W/m 19,3 km/h (3 Bft) 95,12 %
06.11.2022 18:42 9,1 C 8,3 C 3,9 C 88 % 1007,3 hPa 0,0 l/m 0 min 0 min 0 W/m 19,3 km/h (3 Bft) 100,00 %
06.11.2022 18:44 9,1 C 8,3 C 3,9 C 88 % 1007,3 hPa 0,0 l/m 0 min 0 min 0 W/m 16,1 km/h (3 Bft) 95,74 %
06.11.2022 18:46 9,1 C 8,3 C 3,9 C 88 % 1007,3 hPa 0,0 l/m 0 min 0 min 0 W/m 29,0 km/h (5 Bft) 93,48 %
06.11.2022 18:48 9,1 C 8,3 C 3,9 C 88 % 1007,4 hPa 0,0 l/m 0 min 0 min 0 W/m 12,9 km/h (3 Bft) 95,74 %
06.11.2022 18:50 9,1 C 8,3 C 3,9 C 88 % 1007,3 hPa 0,0 l/m 0 min 0 min 0 W/m 16,1 km/h (3 Bft) 95,74 %
06.11.2022 18:52 9,1 C 8,3 C 3,9 C 88 % 1007,4 hPa 0,0 l/m 0 min 0 min 0 W/m 12,9 km/h (3 Bft) 97,87 %
06.11.2022 18:54 9,1 C 8,3 C 3,9 C 88 % 1007,4 hPa 0,0 l/m 0 min 0 min 0 W/m 16,1 km/h (3 Bft) 97,87 %
06.11.2022 18:56 9,1 C 8,3 C 3,9 C 88 % 1007,4 hPa 0,0 l/m 0 min 0 min 0 W/m 12,9 km/h (3 Bft) 97,87 %
06.11.2022 18:58 9,1 C 8,3 C 3,9 C 88 % 1007,4 hPa 0,0 l/m 0 min 0 min 0 W/m 12,9 km/h (3 Bft) 97,83 %
06.11.2022 19:00 9,1 C 8,3 C 3,9 C 87 % 1007,4 hPa 0,0 l/m 0 min 0 min 0 W/m 16,1 km/h (3 Bft) 97,87 %
06.11.2022 19:02 9,1 C 8,3 C 3,9 C 87 % 1007,5 hPa 0,0 l/m 0 min 0 min 0 W/m 12,9 km/h (3 Bft) 95,74 %
06.11.2022 19:04 9,1 C 8,3 C 3,9 C 87 % 1007,6 hPa 0,0 l/m 0 min 0 min 0 W/m 12,9 km/h (3 Bft) 93,62 %
06.11.2022 19:06 9,1 C 8,3 C 3,9 C 87 % 1007,6 hPa 0,0 l/m 0 min 0 min 0 W/m 19,3 km/h (3 Bft) 98,31 %
06.11.2022 19:08 9,1 C 8,3 C 3,9 C 87 % 1007,7 hPa 0,0 l/m 0 min 0 min 0 W/m 12,9 km/h (3 Bft) 94,29 %
06.11.2022 19:10 9,1 C 8,3 C 3,9 C 87 % 1007,6 hPa 0,0 l/m 0 min 0 min 0 W/m 12,9 km/h (3 Bft) 93,48 %
06.11.2022 19:12 9,1 C 8,3 C 3,9 C 87 % 1007,6 hPa 0,0 l/m 0 min 0 min 0 W/m 19,3 km/h (3 Bft) 97,87 %
06.11.2022 19:14 9,1 C 8,3 C 3,9 C 87 % 1007,5 hPa 0,0 l/m 0 min 0 min 0 W/m 6,4 km/h (2 Bft) 97,87 %
06.11.2022 19:16 9,1 C 8,3 C 3,9 C 87 % 1007,5 hPa 0,0 l/m 0 min 0 min 0 W/m 19,3 km/h (3 Bft) 95,74 %
06.11.2022 19:18 9,1 C 8,3 C 3,9 C 87 % 1007,4 hPa 0,0 l/m 0 min 0 min 0 W/m 22,5 km/h (4 Bft) 97,87 %
06.11.2022 19:20 9,1 C 8,3 C 3,9 C 87 % 1007,5 hPa 0,0 l/m 0 min 0 min 0 W/m 19,3 km/h (3 Bft) 93,62 %
06.11.2022 19:22 9,1 C 8,3 C 3,9 C 87 % 1007,6 hPa 0,0 l/m 0 min 0 min 0 W/m 16,1 km/h (3 Bft) 97,83 %
06.11.2022 19:24 9,1 C 8,3 C 3,9 C 87 % 1007,6 hPa 0,0 l/m 0 min 0 min 0 W/m 19,3 km/h (3 Bft) 100,00 %
06.11.2022 19:26 9,1 C 8,3 C 3,9 C 87 % 1007,5 hPa 0,0 l/m 0 min 0 min 0 W/m 16,1 km/h (3 Bft) 97,87 %
06.11.2022 19:28 9,1 C 8,3 C 3,9 C 87 % 1007,5 hPa 0,0 l/m 0 min 0 min 0 W/m 25,7 km/h (4 Bft) 97,96 %
06.11.2022 19:30 9,1 C 8,3 C 3,9 C 87 % 1007,5 hPa 0,0 l/m 0 min 0 min 0 W/m 16,1 km/h (3 Bft) 97,96 %
06.11.2022 19:32 9,1 C 8,3 C 3,9 C 87 % 1007,5 hPa 0,0 l/m 0 min 0 min 0 W/m 12,9 km/h (3 Bft) 93,62 %
06.11.2022 19:34 9,1 C 8,3 C 3,9 C 87 % 1007,5 hPa 0,0 l/m 0 min 0 min 0 W/m 12,9 km/h (3 Bft) 96,23 %
06.11.2022 19:36 9,1 C 8,3 C 3,9 C 87 % 1007,4 hPa 0,0 l/m 0 min 0 min 0 W/m 25,7 km/h (4 Bft) 98,00 %
06.11.2022 19:38 9,1 C 8,3 C 4,4 C 86 % 1007,4 hPa 0,0 l/m 0 min 0 min 0 W/m 16,1 km/h (3 Bft) 97,14 %
06.11.2022 19:40 9,1 C 8,3 C 4,4 C 86 % 1007,4 hPa 0,0 l/m 0 min 0 min 0 W/m 16,1 km/h (3 Bft) 95,92 %
06.11.2022 19:42 9,1 C 8,3 C 4,4 C 86 % 1007,5 hPa 0,0 l/m 0 min 0 min 0 W/m 12,9 km/h (3 Bft) 97,87 %
06.11.2022 19:45 9,1 C 8,3 C 4,4 C 87 % 1007,5 hPa 0,0 l/m 0 min 0 min 0 W/m 22,5 km/h (4 Bft) 98,70 %
06.11.2022 19:46 9,1 C 8,3 C 4,4 C 87 % 1007,5 hPa 0,0 l/m 0 min 0 min 0 W/m 19,3 km/h (3 Bft) 100,00 %
06.11.2022 19:48 9,1 C 8,3 C 5,0 C 86 % 1007,4 hPa 0,0 l/m 0 min 0 min 0 W/m 16,1 km/h (3 Bft) 100,00 %
06.11.2022 19:50 9,1 C 8,3 C 5,0 C 86 % 1007,5 hPa 0,0 l/m 0 min 0 min 0 W/m 12,9 km/h (3 Bft) 97,87 %
06.11.2022 19:52 9,1 C 8,3 C 5,0 C 86 % 1007,5 hPa 0,0 l/m 0 min 0 min 0 W/m 12,9 km/h (3 Bft) 97,87 %
06.11.2022 19:54 9,1 C 8,3 C 5,0 C 86 % 1007,5 hPa 0,0 l/m 0 min 0 min 0 W/m 12,9 km/h (3 Bft) 100,00 %
06.11.2022 19:56 9,1 C 8,3 C 5,0 C 86 % 1007,6 hPa 0,0 l/m 0 min 0 min 0 W/m 12,9 km/h (3 Bft) 100,00 %
06.11.2022 19:58 9,1 C 8,3 C 5,0 C 86 % 1007,6 hPa 0,0 l/m 0 min 0 min 0 W/m 16,1 km/h (3 Bft) 97,87 %
06.11.2022 20:00 9,2 C 8,3 C 5,0 C 86 % 1007,6 hPa 0,0 l/m 0 min 0 min 0 W/m 12,9 km/h (3 Bft) 97,87 %
06.11.2022 20:03 9,1 C 8,3 C 5,0 C 86 % 1007,6 hPa 0,0 l/m 0 min 0 min 0 W/m 12,9 km/h (3 Bft) 94,29 %
06.11.2022 20:04 9,2 C 8,3 C 5,0 C 86 % 1007,6 hPa 0,0 l/m 0 min 0 min 0 W/m 9,7 km/h (2 Bft) 100,00 %
06.11.2022 20:06 9,2 C 8,3 C 5,0 C 86 % 1007,7 hPa 0,0 l/m 0 min 0 min 0 W/m 19,3 km/h (3 Bft) 95,65 %
06.11.2022 20:08 9,2 C 8,3 C 5,0 C 86 % 1007,7 hPa 0,0 l/m 0 min 0 min 0 W/m 16,1 km/h (3 Bft) 100,00 %
06.11.2022 20:10 9,2 C 8,3 C 5,0 C 86 % 1007,6 hPa 0,0 l/m 0 min 0 min 0 W/m 12,9 km/h (3 Bft) 95,74 %
06.11.2022 20:12 9,2 C 8,3 C 5,0 C 86 % 1007,6 hPa 0,0 l/m 0 min 0 min 0 W/m 22,5 km/h (4 Bft) 95,74 %
06.11.2022 20:14 9,2 C 8,9 C 5,0 C 86 % 1007,7 hPa 0,0 l/m 0 min 0 min 0 W/m 22,5 km/h (4 Bft) 97,87 %
06.11.2022 20:16 9,2 C 8,9 C 5,0 C 86 % 1007,7 hPa 0,0 l/m 0 min 0 min 0 W/m 25,7 km/h (4 Bft) 97,83 %
06.11.2022 20:18 9,3 C 8,3 C 5,0 C 86 % 1007,7 hPa 0,0 l/m 0 min 0 min 0 W/m 12,9 km/h (3 Bft) 97,87 %
06.11.2022 20:20 9,3 C 8,3 C 5,0 C 86 % 1007,7 hPa 0,0 l/m 0 min 0 min 0 W/m 16,1 km/h (3 Bft) 97,87 %
06.11.2022 20:22 9,3 C 8,9 C 5,0 C 86 % 1007,7 hPa 0,0 l/m 0 min 0 min 0 W/m 12,9 km/h (3 Bft) 97,87 %
06.11.2022 20:24 9,3 C 8,9 C 5,0 C 86 % 1007,7 hPa 0,0 l/m 0 min 0 min 0 W/m 9,7 km/h (2 Bft) 97,87 %
06.11.2022 20:27 9,3 C 8,9 C 5,0 C 85 % 1007,7 hPa 0,0 l/m 0 min 0 min 0 W/m 16,1 km/h (3 Bft) 98,57 %
06.11.2022 20:28 9,3 C 8,9 C 5,0 C 85 % 1007,7 hPa 0,0 l/m 0 min 0 min 0 W/m 9,7 km/h (2 Bft) 95,65 %
06.11.2022 20:30 9,3 C 8,9 C 5,0 C 85 % 1007,7 hPa 0,0 l/m 0 min 0 min 0 W/m 16,1 km/h (3 Bft) 100,00 %
06.11.2022 20:32 9,3 C 8,9 C 5,0 C 85 % 1007,7 hPa 0,0 l/m 0 min 0 min 0 W/m 16,1 km/h (3 Bft) 100,00 %
06.11.2022 20:35 9,3 C 8,9 C 5,0 C 85 % 1007,6 hPa 0,0 l/m 0 min 0 min 0 W/m 12,9 km/h (3 Bft) 98,57 %
06.11.2022 20:36 9,3 C 8,9 C 5,0 C 85 % 1007,6 hPa 0,0 l/m 0 min 0 min 0 W/m 12,9 km/h (3 Bft) 100,00 %
06.11.2022 20:38 9,3 C 8,9 C 5,0 C 85 % 1007,6 hPa 0,0 l/m 0 min 0 min 0 W/m 12,9 km/h (3 Bft) 100,00 %
06.11.2022 20:40 9,4 C 8,9 C 5,0 C 85 % 1007,6 hPa 0,0 l/m 0 min 0 min 0 W/m 9,7 km/h (2 Bft) 100,00 %
06.11.2022 20:42 9,4 C 8,9 C 5,0 C 85 % 1007,6 hPa 0,0 l/m 0 min 0 min 0 W/m 16,1 km/h (3 Bft) 100,00 %
06.11.2022 20:44 9,4 C 8,9 C 5,6 C 85 % 1007,6 hPa 0,0 l/m 0 min 0 min 0 W/m 12,9 km/h (3 Bft) 100,00 %
06.11.2022 20:47 9,4 C 8,9 C 5,6 C 85 % 1007,7 hPa 0,0 l/m 0 min 0 min 0 W/m 16,1 km/h (3 Bft) 98,78 %
06.11.2022 20:48 9,4 C 8,9 C 5,6 C 85 % 1007,8 hPa 0,0 l/m 0 min 0 min 0 W/m 9,7 km/h (2 Bft) 100,00 %
06.11.2022 20:50 9,5 C 8,9 C 5,6 C 85 % 1007,8 hPa 0,0 l/m 0 min 0 min 0 W/m 19,3 km/h (3 Bft) 100,00 %
06.11.2022 20:52 9,5 C 8,9 C 5,6 C 85 % 1007,8 hPa 0,0 l/m 0 min 0 min 0 W/m 12,9 km/h (3 Bft) 100,00 %
06.11.2022 20:54 9,6 C 8,9 C 5,6 C 85 % 1007,9 hPa 0,0 l/m 0 min 0 min 0 W/m 12,9 km/h (3 Bft) 97,87 %
06.11.2022 20:56 9,6 C 8,9 C 5,6 C 85 % 1007,9 hPa 0,0 l/m 0 min 0 min 0 W/m 6,4 km/h (2 Bft) 100,00 %
06.11.2022 20:58 9,6 C 8,9 C 5,6 C 85 % 1007,9 hPa 0,0 l/m 0 min 0 min 0 W/m 12,9 km/h (3 Bft) 97,87 %
06.11.2022 21:00 9,6 C 8,9 C 5,6 C 85 % 1007,9 hPa 0,0 l/m 0 min 0 min 0 W/m 32,2 km/h (5 Bft) 65,96 %
06.11.2022 21:02 9,7 C 8,9 C 5,6 C 85 % 1008,0 hPa 0,0 l/m 0 min 0 min 0 W/m 9,7 km/h (2 Bft) 85,19 %
06.11.2022 21:04 9,7 C 8,9 C 5,6 C 85 % 1008,0 hPa 0,0 l/m 0 min 0 min 0 W/m 12,9 km/h (3 Bft) 100,00 %
06.11.2022 21:06 9,7 C 8,9 C 5,6 C 85 % 1008,0 hPa 0,0 l/m 0 min 0 min 0 W/m 6,4 km/h (2 Bft) 96,61 %
06.11.2022 21:08 9,8 C 9,4 C 5,6 C 85 % 1008,0 hPa 0,0 l/m 0 min 0 min 0 W/m 16,1 km/h (3 Bft) 100,00 %
06.11.2022 21:10 9,8 C 9,4 C 5,6 C 85 % 1008,1 hPa 0,0 l/m 0 min 0 min 0 W/m 9,7 km/h (2 Bft) 97,87 %
06.11.2022 21:12 9,8 C 9,4 C 5,6 C 85 % 1008,1 hPa 0,0 l/m 0 min 0 min 0 W/m 22,5 km/h (4 Bft) 97,87 %
06.11.2022 21:14 9,8 C 9,4 C 5,6 C 85 % 1008,2 hPa 0,0 l/m 0 min 0 min 0 W/m 12,9 km/h (3 Bft) 100,00 %
06.11.2022 21:16 9,9 C 9,4 C 5,6 C 86 % 1008,2 hPa 0,0 l/m 0 min 0 min 0 W/m 22,5 km/h (4 Bft) 100,00 %
06.11.2022 21:18 9,9 C 9,4 C 5,6 C 86 % 1008,2 hPa 0,0 l/m 0 min 0 min 0 W/m 19,3 km/h (3 Bft) 97,87 %
06.11.2022 21:20 9,9 C 9,4 C 6,1 C 86 % 1008,2 hPa 0,0 l/m 0 min 0 min 0 W/m 22,5 km/h (4 Bft) 100,00 %
06.11.2022 21:22 10,0 C 9,4 C 6,1 C 86 % 1008,3 hPa 0,0 l/m 0 min 0 min 0 W/m 12,9 km/h (3 Bft) 100,00 %
06.11.2022 21:24 10,1 C 9,4 C 6,1 C 86 % 1008,2 hPa 0,0 l/m 0 min 0 min 0 W/m 16,1 km/h (3 Bft) 97,87 %
06.11.2022 21:26 10,1 C 9,4 C 6,1 C 86 % 1008,2 hPa 0,0 l/m 0 min 0 min 0 W/m 19,3 km/h (3 Bft) 100,00 %
06.11.2022 21:28 10,1 C 9,4 C 6,1 C 86 % 1008,2 hPa 0,0 l/m 0 min 0 min 0 W/m 22,5 km/h (4 Bft) 97,87 %
06.11.2022 21:30 10,2 C 9,4 C 6,1 C 86 % 1008,2 hPa 0,0 l/m 0 min 0 min 0 W/m 16,1 km/h (3 Bft) 97,87 %
06.11.2022 21:32 10,2 C 9,4 C 6,1 C 86 % 1008,2 hPa 0,0 l/m 0 min 0 min 0 W/m 16,1 km/h (3 Bft) 100,00 %
06.11.2022 21:34 10,3 C 9,4 C 6,1 C 86 % 1008,2 hPa 0,0 l/m 0 min 0 min 0 W/m 16,1 km/h (3 Bft) 100,00 %
06.11.2022 21:36 10,3 C 10,0 C 6,1 C 86 % 1008,2 hPa 0,0 l/m 0 min 0 min 0 W/m 19,3 km/h (3 Bft) 93,10 %
06.11.2022 21:38 10,3 C 9,4 C 6,1 C 86 % 1008,2 hPa 0,0 l/m 0 min 0 min 0 W/m 16,1 km/h (3 Bft) 94,29 %
06.11.2022 21:40 10,3 C 10,0 C 6,1 C 86 % 1008,2 hPa 0,0 l/m 0 min 0 min 0 W/m 29,0 km/h (5 Bft) 97,87 %
06.11.2022 21:42 10,4 C 10,0 C 6,1 C 86 % 1008,2 hPa 0,0 l/m 0 min 0 min 0 W/m 19,3 km/h (3 Bft) 95,74 %
06.11.2022 21:44 10,4 C 10,0 C 6,1 C 86 % 1008,2 hPa 0,0 l/m 0 min 0 min 0 W/m 22,5 km/h (4 Bft) 96,00 %
06.11.2022 21:46 10,4 C 10,0 C 6,1 C 86 % 1008,2 hPa 0,0 l/m 0 min 0 min 0 W/m 25,7 km/h (4 Bft) 95,74 %
06.11.2022 21:48 10,4 C 10,0 C 6,1 C 87 % 1008,3 hPa 0,0 l/m 0 min 0 min 0 W/m 19,3 km/h (3 Bft) 93,62 %
06.11.2022 21:50 10,5 C 10,0 C 6,1 C 87 % 1008,2 hPa 0,0 l/m 0 min 0 min 0 W/m 29,0 km/h (5 Bft) 91,49 %
06.11.2022 21:52 10,5 C 10,0 C 6,1 C 87 % 1008,3 hPa 0,0 l/m 0 min 0 min 0 W/m 25,7 km/h (4 Bft) 91,49 %
06.11.2022 21:54 10,6 C 10,0 C 6,7 C 87 % 1008,4 hPa 0,0 l/m 0 min 0 min 0 W/m 22,5 km/h (4 Bft) 89,36 %
06.11.2022 21:56 10,6 C 10,0 C 6,7 C 87 % 1008,4 hPa 0,0 l/m 0 min 0 min 0 W/m 19,3 km/h (3 Bft) 91,30 %
06.11.2022 21:58 10,6 C 10,0 C 6,7 C 87 % 1008,4 hPa 0,0 l/m 0 min 0 min 0 W/m 22,5 km/h (4 Bft) 91,49 %
06.11.2022 22:00 10,6 C 10,0 C 6,7 C 87 % 1008,5 hPa 0,0 l/m 0 min 0 min 0 W/m 22,5 km/h (4 Bft) 85,11 %
06.11.2022 22:02 10,7 C 10,0 C 6,7 C 87 % 1008,5 hPa 0,0 l/m 0 min 0 min 0 W/m 29,0 km/h (5 Bft) 93,62 %
06.11.2022 22:04 10,7 C 10,0 C 6,7 C 87 % 1008,6 hPa 0,0 l/m 0 min 0 min 0 W/m 25,7 km/h (4 Bft) 91,84 %
06.11.2022 22:06 10,7 C 10,0 C 6,7 C 87 % 1008,6 hPa 0,0 l/m 0 min 0 min 0 W/m 38,6 km/h (5 Bft) 89,13 %
06.11.2022 22:08 10,8 C 10,0 C 6,7 C 87 % 1008,7 hPa 0,0 l/m 0 min 0 min 0 W/m 22,5 km/h (4 Bft) 93,62 %
06.11.2022 22:11 10,8 C 10,0 C 6,7 C 87 % 1008,6 hPa 0,0 l/m 0 min 0 min 0 W/m 32,2 km/h (5 Bft) 91,43 %
06.11.2022 22:12 10,8 C 10,0 C 6,7 C 87 % 1008,6 hPa 0,0 l/m 0 min 0 min 0 W/m 29,0 km/h (5 Bft) 91,67 %
06.11.2022 22:16 10,8 C 10,0 C 6,7 C 87 % 1008,7 hPa 0,0 l/m 0 min 0 min 0 W/m 22,5 km/h (4 Bft) 93,62 %
06.11.2022 22:17 10,8 C 10,0 C 6,7 C 87 % 1008,8 hPa 0,0 l/m 0 min 0 min 0 W/m 32,2 km/h (5 Bft) 91,30 %
06.11.2022 22:22 10,9 C 10,0 C 6,7 C 87 % 1008,8 hPa 0,0 l/m 0 min 0 min 0 W/m 32,2 km/h (5 Bft) 91,84 %
06.11.2022 22:24 10,9 C 10,0 C 6,7 C 87 % 1008,9 hPa 0,0 l/m 0 min 0 min 0 W/m 35,4 km/h (5 Bft) 91,07 %
06.11.2022 22:26 10,9 C 10,0 C 6,7 C 87 % 1009,0 hPa 0,0 l/m 0 min 0 min 0 W/m 25,7 km/h (4 Bft) 95,74 %
06.11.2022 22:28 10,9 C 10,0 C 6,7 C 87 % 1008,9 hPa 0,0 l/m 0 min 0 min 0 W/m 25,7 km/h (4 Bft) 97,83 %
06.11.2022 22:30 10,9 C 10,0 C 6,7 C 87 % 1008,9 hPa 0,0 l/m 0 min 0 min 0 W/m 25,7 km/h (4 Bft) 95,74 %
06.11.2022 22:32 10,9 C 10,0 C 6,7 C 87 % 1008,9 hPa 0,0 l/m 0 min 0 min 0 W/m 29,0 km/h (5 Bft) 100,00 %
06.11.2022 22:34 10,9 C 10,0 C 6,7 C 87 % 1009,0 hPa 0,0 l/m 0 min 0 min 0 W/m 29,0 km/h (5 Bft) 100,00 %
06.11.2022 22:36 10,9 C 10,0 C 6,7 C 87 % 1008,9 hPa 0,0 l/m 0 min 0 min 0 W/m 32,2 km/h (5 Bft) 100,00 %
06.11.2022 22:38 10,9 C 10,0 C 6,7 C 87 % 1009,0 hPa 0,0 l/m 0 min 0 min 0 W/m 22,5 km/h (4 Bft) 100,00 %
06.11.2022 22:40 10,9 C 10,0 C 6,7 C 87 % 1008,9 hPa 0,0 l/m 0 min 0 min 0 W/m 22,5 km/h (4 Bft) 91,30 %
06.11.2022 22:42 10,9 C 10,0 C 6,7 C 87 % 1008,9 hPa 0,0 l/m 0 min 0 min 0 W/m 29,0 km/h (5 Bft) 91,49 %
06.11.2022 22:44 10,9 C 10,0 C 6,7 C 87 % 1008,8 hPa 0,0 l/m 0 min 0 min 0 W/m 29,0 km/h (5 Bft) 95,74 %
06.11.2022 22:46 10,9 C 10,0 C 6,7 C 87 % 1009,0 hPa 0,0 l/m 0 min 0 min 0 W/m 22,5 km/h (4 Bft) 97,87 %
06.11.2022 22:48 10,9 C 10,0 C 6,7 C 87 % 1009,0 hPa 0,0 l/m 0 min 0 min 0 W/m 32,2 km/h (5 Bft) 100,00 %
06.11.2022 22:50 10,9 C 10,0 C 6,7 C 87 % 1009,0 hPa 0,0 l/m 0 min 0 min 0 W/m 25,7 km/h (4 Bft) 100,00 %
06.11.2022 22:52 10,9 C 10,0 C 6,7 C 87 % 1009,0 hPa 0,0 l/m 0 min 0 min 0 W/m 32,2 km/h (5 Bft) 100,00 %
06.11.2022 22:54 10,9 C 10,0 C 6,7 C 87 % 1009,0 hPa 0,0 l/m 0 min 0 min 0 W/m 25,7 km/h (4 Bft) 100,00 %
06.11.2022 22:56 10,9 C 10,0 C 6,7 C 87 % 1009,1 hPa 0,0 l/m 0 min 0 min 0 W/m 25,7 km/h (4 Bft) 97,87 %
06.11.2022 22:58 10,9 C 10,0 C 6,7 C 87 % 1009,1 hPa 0,0 l/m 0 min 0 min 0 W/m 22,5 km/h (4 Bft) 95,74 %
06.11.2022 23:00 10,8 C 10,0 C 6,7 C 87 % 1009,0 hPa 0,0 l/m 0 min 0 min 0 W/m 25,7 km/h (4 Bft) 95,74 %
06.11.2022 23:02 10,8 C 10,0 C 6,7 C 87 % 1009,0 hPa 0,0 l/m 0 min 0 min 0 W/m 32,2 km/h (5 Bft) 95,74 %
06.11.2022 23:04 10,8 C 10,0 C 6,7 C 87 % 1009,0 hPa 0,0 l/m 0 min 0 min 0 W/m 25,7 km/h (4 Bft) 95,65 %
06.11.2022 23:06 10,8 C 10,0 C 6,7 C 87 % 1009,1 hPa 0,0 l/m 0 min 0 min 0 W/m 19,3 km/h (3 Bft) 93,62 %
06.11.2022 23:08 10,8 C 10,0 C 6,7 C 87 % 1009,0 hPa 0,0 l/m 0 min 0 min 0 W/m 25,7 km/h (4 Bft) 93,62 %
06.11.2022 23:10 10,8 C 10,0 C 6,7 C 87 % 1009,1 hPa 0,0 l/m 0 min 0 min 0 W/m 19,3 km/h (3 Bft) 100,00 %
06.11.2022 23:12 10,8 C 10,0 C 6,7 C 87 % 1009,2 hPa 0,0 l/m 0 min 0 min 0 W/m 35,4 km/h (5 Bft) 100,00 %
06.11.2022 23:14 10,8 C 10,0 C 6,7 C 88 % 1009,3 hPa 0,0 l/m 0 min 0 min 0 W/m 25,7 km/h (4 Bft) 97,87 %
06.11.2022 23:16 10,8 C 10,0 C 6,7 C 88 % 1009,2 hPa 0,0 l/m 0 min 0 min 0 W/m 16,1 km/h (3 Bft) 97,83 %
06.11.2022 23:18 10,8 C 10,0 C 6,7 C 88 % 1009,2 hPa 0,0 l/m 0 min 0 min 0 W/m 25,7 km/h (4 Bft) 93,62 %
06.11.2022 23:20 10,8 C 10,0 C 6,7 C 88 % 1009,1 hPa 0,0 l/m 0 min 0 min 0 W/m 19,3 km/h (3 Bft) 93,62 %
06.11.2022 23:22 10,8 C 10,0 C 6,7 C 88 % 1009,2 hPa 0,0 l/m 0 min 0 min 0 W/m 35,4 km/h (5 Bft) 85,11 %
06.11.2022 23:24 10,8 C 10,0 C 6,7 C 88 % 1009,3 hPa 0,0 l/m 0 min 0 min 0 W/m 29,0 km/h (5 Bft) 93,62 %
06.11.2022 23:26 10,8 C 10,0 C 6,7 C 88 % 1009,2 hPa 0,0 l/m 0 min 0 min 0 W/m 12,9 km/h (3 Bft) 100,00 %
06.11.2022 23:28 10,8 C 10,0 C 6,7 C 88 % 1009,2 hPa 0,0 l/m 0 min 0 min 0 W/m 19,3 km/h (3 Bft) 100,00 %
06.11.2022 23:30 10,8 C 10,0 C 6,7 C 88 % 1009,3 hPa 0,0 l/m 0 min 0 min 0 W/m 29,0 km/h (5 Bft) 97,87 %
06.11.2022 23:32 10,8 C 10,0 C 6,7 C 88 % 1009,3 hPa 0,0 l/m 0 min 0 min 0 W/m 25,7 km/h (4 Bft) 97,87 %
06.11.2022 23:34 10,8 C 10,0 C 6,7 C 88 % 1009,3 hPa 0,0 l/m 0 min 0 min 0 W/m 19,3 km/h (3 Bft) 97,87 %
06.11.2022 23:36 10,8 C 10,0 C 6,7 C 88 % 1009,4 hPa 0,0 l/m 0 min 0 min 0 W/m 25,7 km/h (4 Bft) 100,00 %
06.11.2022 23:38 10,8 C 10,0 C 6,7 C 88 % 1009,4 hPa 0,0 l/m 0 min 0 min 0 W/m 22,5 km/h (4 Bft) 80,85 %
06.11.2022 23:40 10,8 C 10,0 C 6,7 C 88 % 1009,4 hPa 0,0 l/m 0 min 0 min 0 W/m 16,1 km/h (3 Bft) 82,61 %
06.11.2022 23:42 10,8 C 10,0 C 6,7 C 88 % 1009,4 hPa 0,0 l/m 0 min 0 min 0 W/m 16,1 km/h (3 Bft) 85,11 %
06.11.2022 23:44 10,8 C 10,0 C 6,7 C 88 % 1009,4 hPa 0,0 l/m 0 min 0 min 0 W/m 22,5 km/h (4 Bft) 89,36 %
06.11.2022 23:46 10,8 C 10,0 C 6,7 C 88 % 1009,4 hPa 0,0 l/m 0 min 0 min 0 W/m 16,1 km/h (3 Bft) 91,49 %
06.11.2022 23:48 10,8 C 10,0 C 6,7 C 88 % 1009,4 hPa 0,0 l/m 0 min 0 min 0 W/m 16,1 km/h (3 Bft) 97,87 %
06.11.2022 23:50 10,8 C 10,0 C 6,7 C 88 % 1009,4 hPa 0,0 l/m 0 min 0 min 0 W/m 29,0 km/h (5 Bft) 95,74 %
06.11.2022 23:52 10,8 C 10,0 C 6,7 C 88 % 1009,4 hPa 0,0 l/m 0 min 0 min 0 W/m 29,0 km/h (5 Bft) 91,30 %
06.11.2022 23:54 10,8 C 10,0 C 6,7 C 88 % 1009,4 hPa 0,0 l/m 0 min 0 min 0 W/m 19,3 km/h (3 Bft) 95,74 %
06.11.2022 23:56 10,8 C 10,0 C 6,7 C 88 % 1009,4 hPa 0,0 l/m 0 min 0 min 0 W/m 38,6 km/h (5 Bft) 93,62 %
06.11.2022 23:58 10,8 C 10,0 C 6,7 C 88 % 1009,4 hPa 0,0 l/m 0 min 0 min 0 W/m 19,3 km/h (3 Bft) 95,74 %
_ Min-Zeit 02:16 01:50 01:28 12:57 18:38 - - - - 00:00 03:44
Minimum _ 7,1 C 6,1 C 3,3 C 77 % 1007,2 hPa - - - - 3,2 km/h (1 Bft) 55,26 %
_ Max-Zeit 12:58 10:35 12:40 07:34 00:00 16:20 10:27 15:50 10:36 13:54 00:00
Maximum _ 12,3 C 14,4 C 8,3 C 93 % 1017,1 hPa 0,2 l/m 3 min 4 min 436 W/m 41,8 km/h
SO (6 Bft)
100,00 %
Durchschnitt _ 9,4 C 8,8 C 5,3 C 87 % 1012,0 hPa #1,0 l/m #1:03 h #1:22 h 104 W/m 16,5 km/h (3 Bft) 97,03 %
© 2022 W. Hausmann